FIN7AJ EFHK-KLAX

Flight info

Callsign FIN7AJ
Flight time N/A
Altitude 36000
Route TEVRU Y75 NEPIX DCT GOMAV DCT OLOLI/N0499F380 DCT 75N020E 80N010E 82N000E/M084F380 DCT PELRI DCT 84N080W/N0490F380 83N090W 81N100W/N0491F400 76N110W 70N115W/N0479F390 65N117W/N0484F410 60N118W DCT YQU DCT PARQE DCT YDC DCT LKV DCT SHIMR Q9 REBRG DCT IRNMN IRNMN2
Aircraft A359/H-SDE2E3GHIJ3J4J5LM1ORWXY/LB1D1

Departure

Time 2026-04-25 21:13
Airport Helsinki Vantaa Airport (EFHK)

Arrival

Time N/A
Airport Los Angeles International Airport (KLAX)
Time Latitude Longitude Altitude Speed Heading
2026-04-25 20:32 60.31346 24.96345 173 ft 0 kts 47°
2026-04-25 20:34 60.31345 24.96345 173 ft 0 kts 47°
2026-04-25 20:36 60.31345 24.96344 173 ft 0 kts 47°
2026-04-25 20:40 60.31345 24.96343 173 ft 0 kts 47°
2026-04-25 20:43 60.31344 24.96343 173 ft 0 kts 47°
2026-04-25 20:44 60.31344 24.96342 173 ft 0 kts 47°
2026-04-25 20:48 60.31344 24.96341 173 ft 0 kts 47°
2026-04-25 20:53 60.31344 24.96340 173 ft 0 kts 47°
2026-04-25 20:53 60.31343 24.96340 173 ft 0 kts 47°
2026-04-25 20:58 60.31335 24.96322 173 ft 4 kts 47°
2026-04-25 20:58 60.31317 24.96283 173 ft 3 kts 47°
2026-04-25 20:59 60.31301 24.96253 173 ft 4 kts 12°
2026-04-25 20:59 60.31280 24.96263 173 ft 4 kts 317°
2026-04-25 20:59 60.31267 24.96289 173 ft 0 kts 317°
2026-04-25 21:00 60.31266 24.96289 173 ft 0 kts 317°
2026-04-25 21:02 60.31266 24.96290 173 ft 0 kts 317°
2026-04-25 21:03 60.31286 24.96254 173 ft 12 kts 318°
2026-04-25 21:03 60.31354 24.96111 173 ft 14 kts 295°
2026-04-25 21:04 60.31324 24.95946 173 ft 18 kts 226°
2026-04-25 21:04 60.31235 24.95756 173 ft 19 kts 227°
2026-04-25 21:04 60.31174 24.95558 172 ft 15 kts 278°
2026-04-25 21:04 60.31230 24.95397 172 ft 14 kts 318°
2026-04-25 21:05 60.31298 24.95272 172 ft 13 kts 317°
2026-04-25 21:05 60.31364 24.95150 173 ft 13 kts 317°
2026-04-25 21:05 60.31424 24.95022 173 ft 12 kts 312°
2026-04-25 21:05 60.31486 24.95002 174 ft 15 kts 27°
2026-04-25 21:06 60.31590 24.95217 176 ft 24 kts 47°
2026-04-25 21:06 60.31703 24.95464 177 ft 24 kts 47°
2026-04-25 21:06 60.31816 24.95709 176 ft 24 kts 47°
2026-04-25 21:06 60.31855 24.95793 175 ft 24 kts 48°
2026-04-25 21:07 60.32041 24.96208 174 ft 24 kts 47°
2026-04-25 21:07 60.32156 24.96459 174 ft 24 kts 47°
2026-04-25 21:07 60.32265 24.96696 173 ft 19 kts 47°
2026-04-25 21:07 60.32302 24.96835 171 ft 7 kts 106°
2026-04-25 21:08 60.32265 24.96890 171 ft 11 kts 152°
2026-04-25 21:08 60.32144 24.97015 172 ft 22 kts 153°
2026-04-25 21:08 60.32003 24.97160 171 ft 23 kts 153°
2026-04-25 21:08 60.31846 24.97321 168 ft 27 kts 153°
2026-04-25 21:09 60.31486 24.97692 162 ft 31 kts 152°
2026-04-25 21:09 60.31293 24.97893 164 ft 31 kts 152°
2026-04-25 21:09 60.31101 24.98091 164 ft 29 kts 153°
2026-04-25 21:10 60.30923 24.98253 164 ft 27 kts 156°
2026-04-25 21:10 60.30767 24.98388 165 ft 21 kts 156°
2026-04-25 21:10 60.30669 24.98500 164 ft 14 kts 123°
2026-04-25 21:10 60.30675 24.98672 162 ft 13 kts 66°
2026-04-25 21:11 60.30720 24.98799 165 ft 9 kts 21°
2026-04-25 21:11 60.30748 24.98789 165 ft 0 kts 333°
2026-04-25 21:12 60.30835 24.98700 162 ft 43 kts 333°
2026-04-25 21:12 60.31291 24.98232 165 ft 102 kts 333°
2026-04-25 21:12 60.31512 24.98003 159 ft 119 kts 333°
2026-04-25 21:13 60.32900 24.96573 1106 ft 126 kts 333°
2026-04-25 21:13 60.33660 24.95705 1696 ft 131 kts 334°
2026-04-25 21:13 60.34520 24.94756 1936 ft 151 kts 338°
2026-04-25 21:13 60.35538 24.93752 2043 ft 175 kts 338°
2026-04-25 21:14 60.36688 24.92648 2422 ft 191 kts 339°
2026-04-25 21:14 60.37913 24.91416 2887 ft 202 kts 339°
2026-04-25 21:14 60.39190 24.90110 3440 ft 209 kts 339°
2026-04-25 21:14 60.40489 24.88773 4025 ft 215 kts 340°
2026-04-25 21:15 60.41846 24.87387 4560 ft 222 kts 340°
2026-04-25 21:15 60.43327 24.86445 5087 ft 224 kts 355°
2026-04-25 21:15 60.44892 24.86179 5685 ft 229 kts 359°
2026-04-25 21:15 60.46509 24.86033 6225 ft 236 kts 359°
2026-04-25 21:16 60.48164 24.85885 6826 ft 240 kts 359°
2026-04-25 21:16 60.49842 24.85726 7485 ft 243 kts 358°
2026-04-25 21:16 60.51535 24.85558 8216 ft 244 kts 359°
2026-04-25 21:16 60.53256 24.85391 8773 ft 252 kts 358°
2026-04-25 21:17 60.55016 24.85218 9430 ft 257 kts 358°
2026-04-25 21:17 60.56855 24.85034 9738 ft 273 kts 358°
2026-04-25 21:17 60.58776 24.84841 10030 ft 288 kts 357°
2026-04-25 21:17 60.60828 24.84802 10337 ft 303 kts
2026-04-25 21:18 60.62979 24.84841 10671 ft 316 kts
2026-04-25 21:18 60.65205 24.84900 11155 ft 324 kts
2026-04-25 21:18 60.67491 24.84977 11661 ft 330 kts
2026-04-25 21:18 60.69780 24.85067 12456 ft 328 kts
2026-04-25 21:19 60.72019 24.85161 13269 ft 328 kts
2026-04-25 21:19 60.74335 24.85260 13683 ft 336 kts
2026-04-25 21:19 60.76703 24.85363 14082 ft 344 kts
2026-04-25 21:19 60.79100 24.85465 14676 ft 345 kts
2026-04-25 21:20 60.81496 24.85567 15366 ft 345 kts
2026-04-25 21:20 60.82308 24.85601 15510 ft 347 kts
2026-04-25 21:20 60.86453 24.85777 15913 ft 367 kts
2026-04-25 21:20 60.88206 24.85851 16383 ft 366 kts
2026-04-25 21:21 60.90720 24.85957 16956 ft 368 kts
2026-04-25 21:21 60.93296 24.86067 17443 ft 373 kts
2026-04-25 21:21 60.95908 24.86179 17896 ft 379 kts
2026-04-25 21:21 60.98554 24.86295 18389 ft 380 kts
2026-04-25 21:22 61.01191 24.86413 19054 ft 379 kts
2026-04-25 21:22 61.03845 24.86528 19449 ft 385 kts
2026-04-25 21:22 61.06543 24.86641 19875 ft 391 kts
2026-04-25 21:22 61.09276 24.86755 20373 ft 394 kts
2026-04-25 21:23 61.11097 24.86831 20690 ft 396 kts
2026-04-25 21:23 61.13864 24.86948 21174 ft 400 kts
2026-04-25 21:23 61.17598 24.87107 21610 ft 410 kts
2026-04-25 21:23 61.20465 24.87230 22041 ft 414 kts
2026-04-25 21:24 61.23366 24.87355 22479 ft 419 kts
2026-04-25 21:24 61.25335 24.87441 22804 ft 421 kts
2026-04-25 21:24 61.28235 24.87566 23249 ft 423 kts
2026-04-25 21:24 61.31194 24.87695 23599 ft 427 kts
2026-04-25 21:25 61.34183 24.87826 23944 ft 431 kts
2026-04-25 21:25 61.37185 24.87956 24385 ft 432 kts
2026-04-25 21:25 61.40198 24.88087 24793 ft 435 kts 360°
2026-04-25 21:25 61.44222 24.88264 25267 ft 440 kts 360°
2026-04-25 21:26 61.47288 24.88398 25650 ft 443 kts 360°
2026-04-25 21:26 61.49376 24.88488 25874 ft 445 kts
2026-04-25 21:26 61.52446 24.88622 26185 ft 449 kts 360°
2026-04-25 21:26 61.55585 24.88762 26528 ft 453 kts 360°
2026-04-25 21:27 61.58738 24.88902 26974 ft 454 kts 360°
2026-04-25 21:27 61.61902 24.89042 27420 ft 456 kts 359°
2026-04-25 21:27 61.65087 24.89185 27732 ft 460 kts 359°
2026-04-25 21:27 61.68298 24.89326 28089 ft 463 kts 359°
2026-04-25 21:28 61.71522 24.89469 28581 ft 462 kts 360°
2026-04-25 21:28 61.74728 24.89616 29133 ft 461 kts 359°
2026-04-25 21:28 61.77943 24.89761 29451 ft 464 kts 359°
2026-04-25 21:28 61.81194 24.89904 29610 ft 470 kts 360°
2026-04-25 21:29 61.84477 24.90050 29834 ft 473 kts 359°
2026-04-25 21:29 61.87776 24.90199 30150 ft 475 kts 358°
2026-04-25 21:29 61.91037 24.90347 30420 ft 476 kts 359°
2026-04-25 21:29 61.94356 24.90498 30637 ft 479 kts 359°
2026-04-25 21:30 61.97693 24.90652 30910 ft 480 kts 358°
2026-04-25 21:30 62.01032 24.90805 31207 ft 481 kts 359°
2026-04-25 21:30 62.04389 24.90956 31391 ft 484 kts 359°
2026-04-25 21:30 62.06618 24.91057 31536 ft 485 kts 359°
2026-04-25 21:31 62.11134 24.91266 31916 ft 485 kts 359°
2026-04-25 21:31 62.14477 24.91419 32055 ft 489 kts 360°
2026-04-25 21:31 62.17891 24.91575 32249 ft 490 kts 359°
2026-04-25 21:31 62.21289 24.91733 32619 ft 488 kts 359°
2026-04-25 21:32 62.24679 24.91891 32963 ft 487 kts 359°
2026-04-25 21:32 62.28068 24.92049 33143 ft 488 kts 359°
2026-04-25 21:32 62.31459 24.92207 33448 ft 487 kts 359°
2026-04-25 21:32 62.34838 24.92365 33733 ft 485 kts 359°
2026-04-25 21:33 62.38218 24.92522 33876 ft 487 kts 359°
2026-04-25 21:33 62.41563 24.92677 34034 ft 487 kts 359°
2026-04-25 21:33 62.44993 24.92839 34329 ft 484 kts 359°
2026-04-25 21:33 62.48309 24.92996 34519 ft 484 kts 360°
2026-04-25 21:34 62.51684 24.93154 34655 ft 485 kts 360°
2026-04-25 21:34 62.55058 24.93313 34831 ft 485 kts 359°
2026-04-25 21:34 62.58427 24.93471 35005 ft 484 kts 360°
2026-04-25 21:34 62.61802 24.93630 35136 ft 486 kts 360°
2026-04-25 21:35 62.65178 24.93790 35303 ft 485 kts 359°
2026-04-25 21:35 62.68548 24.93951 35491 ft 484 kts 360°
2026-04-25 21:35 62.75318 24.94272 35561 ft 490 kts 360°
2026-04-25 21:36 62.82115 24.94598 35566 ft 492 kts 360°
2026-04-25 21:36 62.88964 24.94929 35582 ft 492 kts 359°
2026-04-25 21:37 62.94655 24.95205 35584 ft 492 kts 360°
2026-04-25 21:37 63.02666 24.95595 35583 ft 492 kts 359°
2026-04-25 21:38 63.09512 24.95929 35584 ft 492 kts 360°
2026-04-25 21:38 63.16320 24.96263 35583 ft 493 kts 360°
2026-04-25 21:39 63.23185 24.96602 35600 ft 493 kts
2026-04-25 21:39 63.30034 24.96942 35601 ft 492 kts
2026-04-25 21:40 63.36882 24.97283 35600 ft 492 kts
2026-04-25 21:40 63.43677 24.97623 35610 ft 492 kts
2026-04-25 21:41 63.50529 24.97967 35612 ft 493 kts
2026-04-25 21:41 63.57388 24.98314 35612 ft 493 kts
2026-04-25 21:42 63.64243 24.98662 35611 ft 493 kts
2026-04-25 21:42 63.71103 24.99012 35614 ft 493 kts
2026-04-25 21:43 63.77919 24.99361 35620 ft 493 kts
2026-04-25 21:43 63.84788 24.99715 35620 ft 494 kts
2026-04-25 21:44 63.91661 25.00071 35620 ft 494 kts
2026-04-25 21:45 64.01910 25.00606 35620 ft 492 kts
2026-04-25 21:45 64.08739 25.00964 35620 ft 491 kts
2026-04-25 21:46 64.15576 25.01323 35634 ft 492 kts
2026-04-25 21:46 64.22419 25.01685 35628 ft 492 kts
2026-04-25 21:47 64.29264 25.02049 35620 ft 492 kts
2026-04-25 21:47 64.36064 25.02412 35634 ft 492 kts
2026-04-25 21:48 64.42910 25.02780 35638 ft 492 kts
2026-04-25 21:48 64.49762 25.03150 35637 ft 493 kts
2026-04-25 21:49 64.56616 25.03181 35627 ft 492 kts 354°
2026-04-25 21:49 64.63411 25.01339 35631 ft 491 kts 351°
2026-04-25 21:50 64.70124 24.98945 35634 ft 491 kts 350°
2026-04-25 21:50 64.76862 24.96439 35634 ft 490 kts 350°
2026-04-25 21:51 64.83594 24.93965 35633 ft 490 kts 350°
2026-04-25 21:51 64.90332 24.91510 35632 ft 490 kts 350°
2026-04-25 21:52 64.97075 24.89051 35646 ft 490 kts 350°
2026-04-25 21:52 65.03817 24.86580 35638 ft 490 kts 350°
2026-04-25 21:53 65.10514 24.84110 35636 ft 490 kts 350°
2026-04-25 21:53 65.17258 24.81609 35661 ft 490 kts 350°
2026-04-25 21:54 65.24002 24.79095 35645 ft 491 kts 350°
2026-04-25 21:54 65.30758 24.76564 35643 ft 491 kts 350°
2026-04-25 21:55 65.37470 24.74037 35649 ft 492 kts 350°
2026-04-25 21:55 65.44227 24.71479 35651 ft 492 kts 350°
2026-04-25 21:56 65.50986 24.68907 35656 ft 491 kts 350°
2026-04-25 21:56 65.57739 24.66324 35662 ft 492 kts 350°
2026-04-25 21:57 65.64507 24.63721 35662 ft 492 kts 350°
2026-04-25 21:57 65.71231 24.61122 35663 ft 492 kts 350°
2026-04-25 21:58 65.77997 24.58493 35665 ft 492 kts 350°
2026-04-25 21:58 65.84760 24.55850 35662 ft 492 kts 350°
2026-04-25 21:59 65.91508 24.53200 35664 ft 490 kts 350°
2026-04-25 21:59 65.98197 24.50559 35665 ft 490 kts 350°
2026-04-25 22:00 66.08292 24.46546 35676 ft 490 kts 350°
2026-04-25 22:00 66.15022 24.43852 35677 ft 490 kts 350°
2026-04-25 22:01 66.21750 24.41145 35678 ft 490 kts 350°
2026-04-25 22:01 66.27345 24.38883 35677 ft 490 kts 350°
2026-04-25 22:02 66.35171 24.35701 35682 ft 491 kts 350°
2026-04-25 22:02 66.41914 24.32943 35681 ft 491 kts 350°
2026-04-25 22:03 66.48640 24.30178 35680 ft 489 kts 350°
2026-04-25 22:03 66.55352 24.27403 35693 ft 489 kts 350°
2026-04-25 22:04 66.62063 24.24614 35693 ft 489 kts 350°
2026-04-25 22:04 66.68725 24.21829 35696 ft 489 kts 350°
2026-04-25 22:05 66.75440 24.19007 35691 ft 490 kts 350°
2026-04-25 22:05 66.82162 24.16166 35697 ft 490 kts 350°
2026-04-25 22:06 66.88888 24.13308 35697 ft 490 kts 349°
2026-04-25 22:06 66.95564 24.10454 35696 ft 490 kts 349°
2026-04-25 22:07 67.01197 24.08035 35702 ft 489 kts 349°
2026-04-25 22:07 67.08941 24.04690 35706 ft 488 kts 349°
2026-04-25 22:08 67.15647 24.01774 35715 ft 490 kts 349°
2026-04-25 22:08 67.22358 23.98842 35705 ft 489 kts 349°
2026-04-25 22:09 67.29013 23.95918 35711 ft 488 kts 349°
2026-04-25 22:09 67.35717 23.92956 35708 ft 488 kts 349°
2026-04-25 22:10 67.42412 23.89980 35711 ft 488 kts 349°
2026-04-25 22:10 67.49073 23.87002 35719 ft 489 kts 349°
2026-04-25 22:11 67.55781 23.83987 35718 ft 489 kts 349°
2026-04-25 22:11 67.62489 23.80954 35717 ft 488 kts 349°
2026-04-25 22:12 67.69176 23.77913 35719 ft 487 kts 349°
2026-04-25 22:12 67.74718 23.75377 35725 ft 487 kts 349°
2026-04-25 22:13 67.82477 23.71809 35733 ft 487 kts 349°
2026-04-25 22:13 67.89164 23.68716 35724 ft 488 kts 349°
2026-04-25 22:14 67.95849 23.65605 35727 ft 488 kts 349°
2026-04-25 22:14 68.02538 23.62473 35727 ft 488 kts 349°
2026-04-25 22:15 68.09225 23.59324 35730 ft 488 kts 349°
2026-04-25 22:16 68.19206 23.54589 35726 ft 488 kts 349°
2026-04-25 22:16 68.25873 23.51403 35733 ft 486 kts 350°
2026-04-25 22:17 68.32533 23.48201 35730 ft 486 kts 349°
2026-04-25 22:17 68.39144 23.45003 35730 ft 486 kts 349°
2026-04-25 22:18 68.45802 23.41764 35664 ft 486 kts 349°
2026-04-25 22:18 68.52455 23.38509 35682 ft 486 kts 349°
2026-04-25 22:19 68.59108 23.35233 35708 ft 486 kts 349°
2026-04-25 22:19 68.65731 23.32073 35719 ft 487 kts 353°
2026-04-25 22:20 68.72488 23.30711 35737 ft 487 kts 356°
2026-04-25 22:20 68.79258 23.29729 35739 ft 487 kts 357°
2026-04-25 22:21 68.86020 23.28827 35737 ft 485 kts 357°
2026-04-25 22:21 68.92753 23.27919 35736 ft 484 kts 357°
2026-04-25 22:22 68.99435 23.26996 35741 ft 484 kts 357°
2026-04-25 22:22 69.06176 23.26052 35738 ft 485 kts 357°
2026-04-25 22:23 69.12917 23.25102 35740 ft 485 kts 357°
2026-04-25 22:23 69.19658 23.24147 35739 ft 485 kts 357°
2026-04-25 22:24 69.26354 23.23193 35738 ft 485 kts 357°
2026-04-25 22:24 69.33096 23.22226 35744 ft 485 kts 357°
2026-04-25 22:25 69.39843 23.21253 35742 ft 486 kts 357°
2026-04-25 22:25 69.46602 23.20271 35740 ft 486 kts 357°
2026-04-25 22:26 69.53314 23.19290 35738 ft 486 kts 357°
2026-04-25 22:26 69.60070 23.18297 35735 ft 485 kts 357°
2026-04-25 22:27 69.66802 23.17300 35732 ft 484 kts 357°
2026-04-25 22:27 69.73527 23.16299 35730 ft 484 kts 357°
2026-04-25 22:28 69.80201 23.15299 35723 ft 484 kts 357°
2026-04-25 22:28 69.86923 23.14285 35720 ft 484 kts 357°
2026-04-25 22:29 69.93643 23.13265 35719 ft 484 kts 357°
2026-04-25 22:29 70.00368 23.12238 35718 ft 484 kts 357°
2026-04-25 22:30 70.10402 23.10692 35721 ft 484 kts 357°
2026-04-25 22:30 70.16034 23.09818 35725 ft 484 kts 357°
2026-04-25 22:31 70.23844 23.08598 35735 ft 484 kts 357°
2026-04-25 22:31 70.30563 23.07541 35732 ft 484 kts 357°
2026-04-25 22:32 70.37280 23.06478 35723 ft 483 kts 357°
2026-04-25 22:32 70.43933 23.05418 35726 ft 482 kts 357°
2026-04-25 22:33 70.50628 23.04343 35732 ft 483 kts 357°
2026-04-25 22:33 70.57343 23.03259 35732 ft 483 kts 357°
2026-04-25 22:34 70.64055 23.02168 35728 ft 483 kts 357°
2026-04-25 22:34 70.70723 23.01076 35725 ft 483 kts 357°
2026-04-25 22:35 70.77429 22.99972 35726 ft 483 kts 357°
2026-04-25 22:35 70.84146 22.98857 35730 ft 483 kts 357°
2026-04-25 22:36 70.90864 22.97735 35728 ft 484 kts 357°
2026-04-25 22:36 70.97548 22.96612 35727 ft 484 kts 357°
2026-04-25 22:37 71.04279 22.95472 35722 ft 484 kts 357°
2026-04-25 22:37 71.11001 22.94113 35901 ft 484 kts 352°
2026-04-25 22:38 71.14317 22.92438 36092 ft 482 kts 350°
2026-04-25 22:38 71.17569 22.90613 36317 ft 481 kts 349°
2026-04-25 22:38 71.20846 22.88687 36469 ft 481 kts 349°
2026-04-25 22:38 71.24134 22.86697 36567 ft 482 kts 349°
2026-04-25 22:39 71.30733 22.82627 36779 ft 483 kts 349°
2026-04-25 22:39 71.34030 22.80580 36915 ft 483 kts 349°
2026-04-25 22:39 71.37331 22.78529 37043 ft 483 kts 349°
2026-04-25 22:40 71.40628 22.76477 37158 ft 484 kts 349°
2026-04-25 22:40 71.43931 22.74418 37267 ft 484 kts 349°
2026-04-25 22:40 71.47188 22.72382 37383 ft 484 kts 349°
2026-04-25 22:40 71.50492 22.70310 37490 ft 484 kts 349°
2026-04-25 22:41 71.53794 22.68232 37597 ft 484 kts 349°
2026-04-25 22:41 71.57101 22.66144 37688 ft 485 kts 349°
2026-04-25 22:41 71.63732 22.61934 37709 ft 488 kts 349°
2026-04-25 22:42 71.70413 22.57661 37706 ft 490 kts 349°
2026-04-25 22:42 71.77051 22.53386 37703 ft 489 kts 349°
2026-04-25 22:43 71.83727 22.49054 37709 ft 490 kts 349°
2026-04-25 22:43 71.90409 22.44688 37718 ft 489 kts 349°
2026-04-25 22:44 71.97082 22.40295 37719 ft 490 kts 348°
2026-04-25 22:44 72.03715 22.35896 37725 ft 490 kts 349°
2026-04-25 22:45 72.10370 22.31450 37726 ft 489 kts 349°
2026-04-25 22:45 72.17033 22.26967 37728 ft 489 kts 349°
2026-04-25 22:46 72.23692 22.22453 37725 ft 488 kts 349°
2026-04-25 22:46 72.30352 22.17906 37727 ft 490 kts 348°
2026-04-25 22:47 72.36966 22.13355 37732 ft 487 kts 348°
2026-04-25 22:47 72.43597 22.08758 37755 ft 488 kts 348°
2026-04-25 22:48 72.50235 22.04121 37729 ft 486 kts 348°
2026-04-25 22:48 72.56865 21.99457 37733 ft 488 kts 348°
2026-04-25 22:49 72.63466 21.94775 37752 ft 488 kts 348°
2026-04-25 22:49 72.70094 21.90043 37743 ft 487 kts 348°
2026-04-25 22:50 72.76745 21.85256 37745 ft 489 kts 348°
2026-04-25 22:50 72.83381 21.80443 37746 ft 488 kts 348°
2026-04-25 22:51 72.89985 21.75616 37756 ft 490 kts 348°
2026-04-25 22:51 72.96644 21.70712 37746 ft 489 kts 348°
2026-04-25 22:52 73.03300 21.65773 37745 ft 490 kts 348°
2026-04-25 22:52 73.08823 21.61646 37748 ft 487 kts 348°
2026-04-25 22:53 73.16572 21.55807 37766 ft 489 kts 348°
2026-04-25 22:53 73.23180 21.50787 37767 ft 488 kts 348°
2026-04-25 22:54 73.29816 21.45706 37769 ft 490 kts 348°
2026-04-25 22:54 73.36487 21.40556 37783 ft 491 kts 348°
2026-04-25 22:55 73.43143 21.35377 37779 ft 490 kts 348°
2026-04-25 22:55 73.49760 21.30187 37799 ft 491 kts 348°
2026-04-25 22:56 73.56411 21.24929 37781 ft 490 kts 348°
2026-04-25 22:56 73.63066 21.19626 37801 ft 491 kts 347°
2026-04-25 22:57 73.69710 21.14285 37797 ft 488 kts 347°
2026-04-25 22:57 73.76304 21.08943 37805 ft 490 kts 347°
2026-04-25 22:58 73.82947 21.03519 37800 ft 488 kts 347°
2026-04-25 22:58 73.89568 20.98066 37817 ft 489 kts 347°
2026-04-25 22:59 73.96202 20.92558 37819 ft 489 kts 347°
2026-04-25 22:59 74.02775 20.87057 37801 ft 489 kts 347°
2026-04-25 23:00 74.09414 20.81455 37845 ft 490 kts 347°
2026-04-25 23:00 74.16054 20.75804 37840 ft 490 kts 347°
2026-04-25 23:01 74.22710 20.70092 37828 ft 492 kts 347°
2026-04-25 23:01 74.29349 20.64345 37833 ft 489 kts 347°
2026-04-25 23:02 74.35929 20.58602 37857 ft 490 kts 347°
2026-04-25 23:02 74.42557 20.52768 37855 ft 488 kts 347°
2026-04-25 23:03 74.49170 20.46896 37863 ft 490 kts 347°
2026-04-25 23:03 74.55810 20.40951 37857 ft 491 kts 347°
2026-04-25 23:04 74.61337 20.35963 37868 ft 492 kts 347°
2026-04-25 23:04 74.69079 20.28915 37865 ft 492 kts 347°
2026-04-25 23:05 74.75723 20.22808 37874 ft 491 kts 346°
2026-04-25 23:05 74.82377 20.16640 37871 ft 492 kts 346°
2026-04-25 23:06 74.88969 20.10473 37885 ft 489 kts 346°
2026-04-25 23:06 74.95590 20.04224 37892 ft 492 kts 346°
2026-04-25 23:07 75.02233 19.97792 37887 ft 491 kts 344°
2026-04-25 23:07 75.08728 19.89472 37904 ft 492 kts 340°
2026-04-25 23:08 75.15131 19.80481 37907 ft 492 kts 340°
2026-04-25 23:08 75.21581 19.71607 37906 ft 492 kts 341°
2026-04-25 23:09 75.28048 19.62861 37906 ft 492 kts 341°
2026-04-25 23:09 75.34530 19.54088 37924 ft 492 kts 341°
2026-04-25 23:10 75.40964 19.45297 37923 ft 493 kts 341°
2026-04-25 23:10 75.47451 19.36340 37921 ft 492 kts 341°
2026-04-25 23:11 75.53911 19.27331 37933 ft 491 kts 341°
2026-04-25 23:11 75.60359 19.18254 37944 ft 492 kts 340°
2026-04-25 23:12 75.66778 19.09135 37941 ft 492 kts 340°
2026-04-25 23:12 75.73218 18.99902 37943 ft 491 kts 340°
2026-04-25 23:13 75.79665 18.90571 37961 ft 493 kts 340°
2026-04-25 23:13 75.86127 18.81127 37957 ft 493 kts 340°
2026-04-25 23:14 75.92541 18.71666 37959 ft 493 kts 340°
2026-04-25 23:14 75.99000 18.62046 37970 ft 493 kts 340°
2026-04-25 23:15 76.05424 18.52387 37973 ft 491 kts 340°
2026-04-25 23:15 76.11845 18.42640 37980 ft 492 kts 340°
2026-04-25 23:16 76.18275 18.32782 37983 ft 492 kts 340°
2026-04-25 23:16 76.24652 18.22910 37991 ft 493 kts 340°
2026-04-25 23:17 76.31085 18.12854 37997 ft 494 kts 339°
2026-04-25 23:17 76.37522 18.02692 37996 ft 493 kts 339°
2026-04-25 23:18 76.41773 17.95927 38007 ft 493 kts 339°
2026-04-25 23:18 76.50328 17.82172 38014 ft 494 kts 339°
2026-04-25 23:19 76.56741 17.71745 38014 ft 491 kts 339°
2026-04-25 23:19 76.63135 17.61240 38028 ft 493 kts 339°
2026-04-25 23:20 76.69544 17.50603 38023 ft 493 kts 339°
2026-04-25 23:20 76.75943 17.39878 38025 ft 493 kts 339°
2026-04-25 23:21 76.82302 17.29108 38035 ft 494 kts 339°
2026-04-25 23:21 76.88704 17.18155 38031 ft 493 kts 339°
2026-04-25 23:22 76.95087 17.07122 38037 ft 493 kts 338°
2026-04-25 23:23 77.04672 16.90337 38039 ft 494 kts 338°
2026-04-25 23:23 77.11013 16.79088 38041 ft 494 kts 338°
2026-04-25 23:24 77.17405 16.67628 38046 ft 495 kts 338°
2026-04-25 23:24 77.23792 16.56057 38045 ft 494 kts 338°
2026-04-25 23:25 77.30167 16.44382 38047 ft 494 kts 338°
2026-04-25 23:25 77.36546 16.32576 38047 ft 495 kts 338°
2026-04-25 23:26 77.42866 16.20751 38050 ft 494 kts 338°
2026-04-25 23:26 77.49230 16.08716 38057 ft 495 kts 338°
2026-04-25 23:27 77.55597 15.96545 38034 ft 496 kts 337°
2026-04-25 23:27 77.61960 15.84247 38047 ft 495 kts 337°
2026-04-25 23:28 77.68283 15.71892 38053 ft 496 kts 337°
2026-04-25 23:28 77.74639 15.59333 38051 ft 496 kts 337°
2026-04-25 23:29 77.80989 15.46648 38048 ft 495 kts 337°
2026-04-25 23:29 77.87336 15.33825 38053 ft 496 kts 337°
2026-04-25 23:30 77.93675 15.20874 38050 ft 495 kts 336°
2026-04-25 23:30 77.99957 15.07894 38050 ft 496 kts 336°
2026-04-25 23:31 78.06285 14.94670 38051 ft 496 kts 336°
2026-04-25 23:31 78.12603 14.81316 38051 ft 495 kts 336°
2026-04-25 23:32 78.18917 14.67815 38057 ft 496 kts 336°
2026-04-25 23:32 78.25179 14.54271 38058 ft 495 kts 336°
2026-04-25 23:33 78.31467 14.40513 38058 ft 495 kts 336°
2026-04-25 23:33 78.37757 14.26587 38044 ft 496 kts 336°
2026-04-25 23:34 78.44051 14.12489 38078 ft 496 kts 335°
2026-04-25 23:34 78.50334 13.98249 38075 ft 496 kts 335°
2026-04-25 23:35 78.56579 13.83925 38066 ft 496 kts 335°
2026-04-25 23:35 78.62853 13.69363 38094 ft 496 kts 335°
2026-04-25 23:36 78.69115 13.54651 38103 ft 496 kts 335°
2026-04-25 23:36 78.75379 13.39757 38102 ft 496 kts 335°
2026-04-25 23:37 78.81590 13.24807 38113 ft 497 kts 335°
2026-04-25 23:37 78.87844 13.09568 38124 ft 497 kts 334°
2026-04-25 23:38 78.94093 12.94154 38126 ft 497 kts 334°
2026-04-25 23:38 79.00332 12.78573 38127 ft 497 kts 334°
2026-04-25 23:39 79.06518 12.62928 38131 ft 497 kts 334°
2026-04-25 23:39 79.12745 12.46983 38118 ft 497 kts 334°
2026-04-25 23:40 79.18957 12.30874 38153 ft 497 kts 334°
2026-04-25 23:40 79.25166 12.14566 38150 ft 498 kts 333°
2026-04-25 23:41 79.31377 11.98043 38130 ft 498 kts 333°
2026-04-25 23:41 79.37535 11.81451 38170 ft 498 kts 333°
2026-04-25 23:42 79.43725 11.64554 38171 ft 498 kts 333°
2026-04-25 23:42 79.49906 11.47459 38160 ft 497 kts 333°
2026-04-25 23:43 79.56071 11.30184 38197 ft 498 kts 333°
2026-04-25 23:43 79.62196 11.12792 38181 ft 498 kts 333°
2026-04-25 23:44 79.68358 10.95065 38194 ft 499 kts 332°
2026-04-25 23:44 79.74514 10.77113 38231 ft 499 kts 332°
2026-04-25 23:45 79.80660 10.58950 38208 ft 499 kts 332°
2026-04-25 23:45 79.86753 10.40697 38239 ft 498 kts 332°
2026-04-25 23:46 79.92872 10.22115 38250 ft 498 kts 332°
2026-04-25 23:46 79.98982 10.03304 38232 ft 499 kts 331°
2026-04-25 23:47 80.04962 9.83084 38259 ft 498 kts 326°
2026-04-25 23:47 80.09727 9.64275 38257 ft 499 kts 325°
2026-04-25 23:48 80.16365 9.37555 38254 ft 499 kts 325°
2026-04-25 23:48 80.22108 9.14653 38265 ft 499 kts 325°
2026-04-25 23:49 80.27851 8.91678 38295 ft 499 kts 325°
2026-04-25 23:49 80.33541 8.68627 38281 ft 498 kts 325°
2026-04-25 23:50 80.39246 8.45160 38285 ft 498 kts 325°
2026-04-25 23:50 80.43976 8.25427 38285 ft 498 kts 324°
2026-04-25 23:51 80.50614 7.97319 38303 ft 499 kts 324°
2026-04-25 23:51 80.55327 7.77069 38304 ft 499 kts 324°
2026-04-25 23:52 80.61897 7.48418 38302 ft 499 kts 324°
2026-04-25 23:52 80.67532 7.23446 38316 ft 499 kts 323°
2026-04-25 23:53 80.72198 7.02475 38320 ft 499 kts 323°
2026-04-25 23:53 80.77800 6.76949 38317 ft 499 kts 323°
2026-04-25 23:54 80.83376 6.51147 38335 ft 499 kts 323°
2026-04-25 23:54 80.89837 6.20757 38342 ft 499 kts 322°
2026-04-25 23:55 80.94444 5.98741 38341 ft 500 kts 322°
2026-04-25 23:55 80.99977 5.71925 38349 ft 500 kts 322°
2026-04-25 23:56 81.06385 5.40343 38354 ft 500 kts 322°
2026-04-25 23:56 81.10985 5.17304 38356 ft 500 kts 321°
2026-04-25 23:57 81.16422 4.89676 38372 ft 500 kts 321°
2026-04-25 23:57 81.21872 4.61531 38369 ft 500 kts 321°
2026-04-25 23:58 81.27300 4.33045 38371 ft 500 kts 321°
2026-04-25 23:58 81.32717 4.04152 38372 ft 500 kts 320°
2026-04-25 23:59 81.38076 3.75094 38383 ft 501 kts 320°
2026-04-25 23:59 81.43450 3.45467 38386 ft 501 kts 320°
2026-04-26 00:00 81.49663 3.10586 38390 ft 500 kts 319°
2026-04-26 00:00 81.54121 2.85142 38400 ft 500 kts 319°
2026-04-26 00:01 81.59390 2.54603 38402 ft 501 kts 318°
2026-04-26 00:01 81.64672 2.23451 38396 ft 501 kts 318°
2026-04-26 00:02 81.69933 1.91884 38407 ft 501 kts 318°
2026-04-26 00:02 81.75169 1.59927 38409 ft 501 kts 317°
2026-04-26 00:03 81.80349 1.27757 38409 ft 501 kts 317°
2026-04-26 00:03 81.85537 0.94963 38418 ft 502 kts 317°
2026-04-26 00:04 81.90698 0.61751 38417 ft 501 kts 316°
2026-04-26 00:04 81.95832 0.28114 38416 ft 501 kts 316°
2026-04-26 00:05 82.00901 -0.05660 38430 ft 501 kts 316°
2026-04-26 00:05 82.06277 -0.37769 38428 ft 503 kts 321°
2026-04-26 00:06 82.11806 -0.68895 38428 ft 503 kts 321°
2026-04-26 00:06 82.17284 -1.00771 38428 ft 503 kts 320°
2026-04-26 00:07 82.22689 -1.33408 38431 ft 503 kts 319°
2026-04-26 00:07 82.28023 -1.66416 38427 ft 503 kts 319°
2026-04-26 00:08 82.33366 -2.00113 38425 ft 503 kts 319°
2026-04-26 00:08 82.38682 -2.34248 38440 ft 502 kts 319°
2026-04-26 00:09 82.43974 -2.68871 38435 ft 503 kts 318°
2026-04-26 00:09 82.49210 -3.03772 38436 ft 504 kts 318°
2026-04-26 00:10 82.54460 -3.39449 38436 ft 504 kts 317°
2026-04-26 00:10 82.59668 -3.75541 38444 ft 503 kts 317°
2026-04-26 00:11 82.64850 -4.12162 38440 ft 503 kts 316°
2026-04-26 00:11 82.69970 -4.49071 38441 ft 504 kts 316°
2026-04-26 00:12 82.75092 -4.86734 38453 ft 503 kts 316°
2026-04-26 00:12 82.80181 -5.24916 38451 ft 503 kts 315°
2026-04-26 00:13 82.85240 -5.63652 38446 ft 503 kts 315°
2026-04-26 00:13 82.90271 -6.02969 38448 ft 504 kts 315°
2026-04-26 00:14 82.95232 -6.42570 38456 ft 504 kts 314°
2026-04-26 00:14 83.00201 -6.83047 38450 ft 504 kts 314°
2026-04-26 00:15 83.05131 -7.24074 38453 ft 504 kts 313°
2026-04-26 00:15 83.10027 -7.65698 38459 ft 505 kts 313°
2026-04-26 00:16 83.14864 -8.07718 38457 ft 505 kts 313°
2026-04-26 00:16 83.19692 -8.50586 38457 ft 505 kts 313°
2026-04-26 00:17 83.24475 -8.93990 38454 ft 504 kts 312°
2026-04-26 00:17 83.29219 -9.38011 38459 ft 505 kts 311°
2026-04-26 00:18 83.33898 -9.82407 38462 ft 505 kts 311°
2026-04-26 00:18 83.38571 -10.27769 38450 ft 505 kts 311°
2026-04-26 00:19 83.43203 -10.73783 38461 ft 505 kts 310°
2026-04-26 00:19 83.47792 -11.20433 38463 ft 504 kts 310°
2026-04-26 00:20 83.52331 -11.67664 38463 ft 505 kts 309°
2026-04-26 00:20 83.56801 -12.15287 38458 ft 505 kts 308°
2026-04-26 00:21 83.61258 -12.63934 38464 ft 506 kts 308°
2026-04-26 00:21 83.65669 -13.13248 38465 ft 505 kts 308°
2026-04-26 00:22 83.70031 -13.63240 38459 ft 505 kts 307°
2026-04-26 00:22 83.74308 -14.13478 38467 ft 504 kts 307°
2026-04-26 00:23 83.78567 -14.64764 38463 ft 505 kts 306°
2026-04-26 00:23 83.82781 -15.16829 38463 ft 505 kts 306°
2026-04-26 00:24 83.86949 -15.69640 38454 ft 505 kts 305°
2026-04-26 00:24 83.91035 -16.22795 38462 ft 506 kts 304°
2026-04-26 00:25 83.95101 -16.77125 38460 ft 505 kts 304°
2026-04-26 00:25 83.99102 -17.32007 38451 ft 505 kts 303°
2026-04-26 00:26 84.03050 -17.87679 38459 ft 505 kts 303°
2026-04-26 00:26 84.06909 -18.43588 38452 ft 504 kts 303°
2026-04-26 00:27 84.10730 -19.00506 38453 ft 504 kts 302°
2026-04-26 00:27 84.14502 -19.58321 38452 ft 505 kts 302°
2026-04-26 00:28 84.18220 -20.16955 38452 ft 506 kts 301°
2026-04-26 00:28 84.21881 -20.76434 38452 ft 505 kts 300°
2026-04-26 00:29 84.25445 -21.36051 38452 ft 505 kts 300°
2026-04-26 00:29 84.28972 -21.96818 38449 ft 506 kts 299°
2026-04-26 00:30 84.32443 -22.58542 38447 ft 507 kts 298°
2026-04-26 00:30 84.35848 -23.21035 38449 ft 506 kts 298°
2026-04-26 00:31 84.39162 -23.83788 38442 ft 506 kts 297°
2026-04-26 00:31 84.42433 -24.47770 38444 ft 506 kts 297°
2026-04-26 00:32 84.45631 -25.12426 38435 ft 506 kts 296°
2026-04-26 00:32 84.50298 -26.10909 38434 ft 506 kts 295°
2026-04-26 00:33 84.53297 -26.76990 38444 ft 506 kts 294°
2026-04-26 00:33 84.56241 -27.44222 38433 ft 506 kts 294°
2026-04-26 00:34 84.59108 -28.12087 38432 ft 504 kts 293°
2026-04-26 00:34 84.61890 -28.80491 38426 ft 504 kts 292°
2026-04-26 00:35 84.64597 -29.49667 38430 ft 506 kts 291°
2026-04-26 00:35 84.67213 -30.19136 38432 ft 505 kts 291°
2026-04-26 00:36 84.69762 -30.89617 38419 ft 504 kts 290°
2026-04-26 00:36 84.72226 -31.60669 38424 ft 504 kts 290°
2026-04-26 00:37 84.74612 -32.32469 38422 ft 505 kts 289°
2026-04-26 00:37 84.76901 -33.04399 38410 ft 504 kts 288°
2026-04-26 00:38 84.79124 -33.77567 38419 ft 505 kts 288°
2026-04-26 00:38 84.81262 -34.51350 38420 ft 505 kts 287°
2026-04-26 00:39 84.83311 -35.25637 38408 ft 505 kts 286°
2026-04-26 00:39 84.85261 -35.99997 38406 ft 504 kts 285°
2026-04-26 00:40 84.87134 -36.75359 38405 ft 504 kts 285°
2026-04-26 00:40 84.88918 -37.51210 38403 ft 504 kts 284°
2026-04-26 00:41 84.90615 -38.27739 38405 ft 504 kts 283°
2026-04-26 00:41 84.92208 -39.04120 38406 ft 504 kts 283°
2026-04-26 00:42 84.93718 -39.81369 38417 ft 504 kts 282°
2026-04-26 00:42 84.95139 -40.59207 38416 ft 504 kts 281°
2026-04-26 00:43 84.96466 -41.37409 38394 ft 503 kts 280°
2026-04-26 00:43 84.97689 -42.15385 38404 ft 503 kts 279°
2026-04-26 00:44 84.98826 -42.94197 38406 ft 503 kts 279°
2026-04-26 00:44 84.99869 -43.73473 38396 ft 503 kts 278°
2026-04-26 00:45 85.00816 -44.52983 38390 ft 503 kts 277°
2026-04-26 00:45 85.01661 -45.32158 38393 ft 503 kts 276°
2026-04-26 00:46 85.02417 -46.12227 38392 ft 503 kts 276°
2026-04-26 00:46 85.03074 -46.92351 38394 ft 502 kts 275°
2026-04-26 00:47 85.03633 -47.72618 38391 ft 501 kts 274°
2026-04-26 00:47 85.04095 -48.52913 38388 ft 501 kts 273°
2026-04-26 00:48 85.04458 -49.32882 38388 ft 501 kts 272°
2026-04-26 00:48 85.04726 -50.13505 38377 ft 501 kts 272°
2026-04-26 00:49 85.04897 -50.94129 38390 ft 501 kts 271°
2026-04-26 00:49 85.04969 -51.74793 38391 ft 501 kts 270°
2026-04-26 00:50 85.04945 -52.54814 38370 ft 500 kts 270°
2026-04-26 00:50 85.04824 -53.35280 38371 ft 500 kts 269°
2026-04-26 00:51 85.04605 -54.15768 38370 ft 500 kts 268°
2026-04-26 00:51 85.04290 -54.96097 38360 ft 500 kts 267°
2026-04-26 00:52 85.03878 -55.76327 38361 ft 500 kts 266°
2026-04-26 00:52 85.03373 -56.55876 38362 ft 500 kts 266°
2026-04-26 00:53 85.02768 -57.35815 38364 ft 500 kts 265°
2026-04-26 00:53 85.02067 -58.15566 38361 ft 500 kts 264°
2026-04-26 00:54 85.01270 -58.94995 38361 ft 500 kts 264°
2026-04-26 00:54 85.00380 -59.73611 38359 ft 500 kts 262°
2026-04-26 00:55 84.98673 -60.50824 38359 ft 501 kts 253°
2026-04-26 00:55 84.96526 -61.26364 38349 ft 501 kts 252°
2026-04-26 00:56 84.94233 -62.01136 38362 ft 501 kts 251°
2026-04-26 00:56 84.91882 -62.74729 38363 ft 501 kts 250°
2026-04-26 00:57 84.89443 -63.48243 38349 ft 501 kts 250°
2026-04-26 00:57 84.86929 -64.20997 38368 ft 501 kts 250°
2026-04-26 00:58 84.84332 -64.93042 38368 ft 501 kts 249°
2026-04-26 00:58 84.81672 -65.63829 38368 ft 501 kts 248°
2026-04-26 00:59 84.78914 -66.34383 38373 ft 501 kts 248°
2026-04-26 00:59 84.76079 -67.04213 38374 ft 501 kts 246°
2026-04-26 01:00 84.73165 -67.73297 38389 ft 501 kts 246°
2026-04-26 01:00 84.70178 -68.41639 38379 ft 501 kts 245°
2026-04-26 01:01 84.67140 -69.08730 38369 ft 501 kts 244°
2026-04-26 01:01 84.64005 -69.75528 38390 ft 501 kts 245°
2026-04-26 01:02 84.60798 -70.41559 38384 ft 502 kts 244°
2026-04-26 01:02 84.57515 -71.06861 38383 ft 502 kts 243°
2026-04-26 01:03 84.54167 -71.71321 38398 ft 502 kts 243°
2026-04-26 01:03 84.50771 -72.34634 38393 ft 502 kts 241°
2026-04-26 01:04 84.47280 -72.97645 38390 ft 502 kts 241°
2026-04-26 01:04 84.43730 -73.59836 38401 ft 502 kts 241°
2026-04-26 01:05 84.40121 -74.21180 38409 ft 502 kts 240°
2026-04-26 01:05 84.36460 -74.81430 38395 ft 503 kts 240°
2026-04-26 01:06 84.32714 -75.41302 38411 ft 503 kts 239°
2026-04-26 01:06 84.28909 -76.00405 38415 ft 503 kts 238°
2026-04-26 01:07 84.25043 -76.58714 38401 ft 503 kts 237°
2026-04-26 01:07 84.21141 -77.15872 38419 ft 503 kts 237°
2026-04-26 01:08 84.17156 -77.72642 38422 ft 503 kts 237°
2026-04-26 01:08 84.13113 -78.28711 38412 ft 504 kts 236°
2026-04-26 01:09 84.09016 -78.84025 38427 ft 504 kts 236°
2026-04-26 01:09 84.04890 -79.38186 38427 ft 504 kts 236°
2026-04-26 01:10 84.00683 -79.91957 38419 ft 504 kts 234°
2026-04-26 01:10 83.96460 -80.45256 38439 ft 503 kts 235°
2026-04-26 01:11 83.92253 -80.98224 38442 ft 504 kts 235°
2026-04-26 01:11 83.87993 -81.50561 38432 ft 504 kts 235°
2026-04-26 01:12 83.83701 -82.01747 38440 ft 504 kts 234°
2026-04-26 01:12 83.79320 -82.52525 38446 ft 504 kts 233°
2026-04-26 01:13 83.74889 -83.02598 38424 ft 504 kts 233°
2026-04-26 01:13 83.70415 -83.51947 38460 ft 503 kts 232°
2026-04-26 01:14 83.65936 -84.00174 38457 ft 503 kts 232°
2026-04-26 01:14 83.61379 -84.48055 38458 ft 503 kts 232°
2026-04-26 01:15 83.56777 -84.95292 38471 ft 504 kts 231°
2026-04-26 01:15 83.52130 -85.41881 38472 ft 504 kts 231°
2026-04-26 01:16 83.47470 -85.87527 38467 ft 504 kts 230°
2026-04-26 01:16 83.42738 -86.32850 38478 ft 504 kts 231°
2026-04-26 01:17 83.37967 -86.77528 38476 ft 504 kts 230°
2026-04-26 01:17 83.33153 -87.21589 38497 ft 504 kts 229°
2026-04-26 01:18 83.28329 -87.64728 38490 ft 505 kts 229°
2026-04-26 01:18 83.23428 -88.07561 38508 ft 505 kts 228°
2026-04-26 01:19 83.18488 -88.49846 38486 ft 505 kts 229°
2026-04-26 01:19 83.13517 -88.91508 38515 ft 505 kts 227°
2026-04-26 01:20 83.08542 -89.32305 38514 ft 505 kts 227°
2026-04-26 01:20 83.03490 -89.72789 38512 ft 506 kts 227°
2026-04-26 01:21 82.98390 -90.12634 38515 ft 506 kts 225°
2026-04-26 01:21 82.92988 -90.49474 38516 ft 506 kts 221°
2026-04-26 01:22 82.87500 -90.84539 38520 ft 506 kts 221°
2026-04-26 01:22 82.81979 -91.19624 38539 ft 506 kts 221°
2026-04-26 01:23 82.76461 -91.54495 38519 ft 506 kts 221°
2026-04-26 01:23 82.70919 -91.88958 38527 ft 507 kts 221°
2026-04-26 01:24 82.65354 -92.22893 38546 ft 507 kts 220°
2026-04-26 01:24 82.59805 -92.56090 38539 ft 507 kts 220°
2026-04-26 01:25 82.54185 -92.89013 38556 ft 507 kts 220°
2026-04-26 01:25 82.48544 -93.21374 38551 ft 506 kts 220°
2026-04-26 01:26 82.42894 -93.53207 38548 ft 505 kts 219°
2026-04-26 01:26 82.37267 -93.84357 38553 ft 505 kts 219°
2026-04-26 01:27 82.31574 -94.15295 38569 ft 505 kts 219°
2026-04-26 01:27 82.25856 -94.45782 38571 ft 506 kts 219°
2026-04-26 01:28 82.20117 -94.75817 38555 ft 506 kts 218°
2026-04-26 01:28 82.14345 -95.05447 38556 ft 506 kts 218°
2026-04-26 01:29 82.08596 -95.34461 38557 ft 506 kts 217°
2026-04-26 01:29 82.02790 -95.63236 38561 ft 506 kts 217°
2026-04-26 01:30 81.96978 -95.91535 38560 ft 504 kts 218°
2026-04-26 01:30 81.91154 -96.19379 38578 ft 504 kts 217°
2026-04-26 01:31 81.85349 -96.46685 38578 ft 504 kts 216°
2026-04-26 01:31 81.79489 -96.73777 38573 ft 504 kts 216°
2026-04-26 01:32 81.73611 -97.00484 38611 ft 504 kts 216°
2026-04-26 01:32 81.67712 -97.26826 38591 ft 504 kts 216°
2026-04-26 01:33 81.61833 -97.52612 38579 ft 505 kts 216°
2026-04-26 01:33 81.55896 -97.78227 38586 ft 505 kts 215°
2026-04-26 01:34 81.49948 -98.03479 38602 ft 503 kts 214°
2026-04-26 01:34 81.44006 -98.28285 38594 ft 502 kts 214°
2026-04-26 01:35 81.38085 -98.52598 38613 ft 503 kts 214°
2026-04-26 01:35 81.32113 -98.76727 38613 ft 503 kts 214°
2026-04-26 01:36 81.26117 -99.00565 38605 ft 503 kts 214°
2026-04-26 01:37 81.17103 -99.35700 38620 ft 503 kts 213°
2026-04-26 01:37 81.11067 -99.58755 38621 ft 503 kts 213°
2026-04-26 01:38 81.05058 -99.81347 38622 ft 503 kts 213°
2026-04-26 01:38 81.02035 -99.92576 38812 ft 501 kts 212°
2026-04-26 01:38 80.99019 -100.03679 39091 ft 499 kts 212°
2026-04-26 01:38 80.95961 -100.14166 39258 ft 500 kts 209°
2026-04-26 01:39 80.92844 -100.24018 39373 ft 501 kts 208°
2026-04-26 01:39 80.89704 -100.33581 39488 ft 501 kts 208°
2026-04-26 01:39 80.86596 -100.42945 39593 ft 501 kts 208°
2026-04-26 01:39 80.83455 -100.52418 39698 ft 501 kts 208°
2026-04-26 01:40 80.80315 -100.61914 39807 ft 501 kts 208°
2026-04-26 01:40 80.77180 -100.71404 39909 ft 501 kts 208°
2026-04-26 01:40 80.74046 -100.80872 40028 ft 501 kts 208°
2026-04-26 01:41 80.67772 -100.99683 40179 ft 501 kts 208°
2026-04-26 01:41 80.61485 -101.18257 40366 ft 501 kts 208°
2026-04-26 01:42 80.55230 -101.36453 40537 ft 501 kts 207°
2026-04-26 01:42 80.48917 -101.54544 40647 ft 503 kts 207°
2026-04-26 01:43 80.42583 -101.72429 40648 ft 502 kts 207°
2026-04-26 01:43 80.36250 -101.90053 40658 ft 502 kts 207°
2026-04-26 01:44 80.29951 -102.07331 40655 ft 502 kts 207°
2026-04-26 01:44 80.23599 -102.24510 40673 ft 502 kts 207°
2026-04-26 01:45 80.17239 -102.41467 40672 ft 502 kts 207°
2026-04-26 01:45 80.10869 -102.58213 40664 ft 502 kts 207°
2026-04-26 01:46 80.04534 -102.74635 40674 ft 502 kts 206°
2026-04-26 01:46 79.98146 -102.90965 40675 ft 502 kts 206°
2026-04-26 01:47 79.91749 -103.07092 40664 ft 502 kts 206°
2026-04-26 01:47 79.85348 -103.23010 40682 ft 502 kts 206°
2026-04-26 01:48 79.78949 -103.38706 40680 ft 501 kts 206°
2026-04-26 01:48 79.72585 -103.54109 40707 ft 501 kts 206°
2026-04-26 01:49 79.66166 -103.69437 40690 ft 502 kts 206°
2026-04-26 01:49 79.59743 -103.84570 40691 ft 502 kts 206°
2026-04-26 01:50 79.53314 -103.99516 40712 ft 502 kts 205°
2026-04-26 01:50 79.46917 -104.14194 40703 ft 502 kts 205°
2026-04-26 01:51 79.40470 -104.28793 40687 ft 502 kts 205°
2026-04-26 01:51 79.34011 -104.43230 40700 ft 502 kts 205°
2026-04-26 01:52 79.27557 -104.57469 40709 ft 501 kts 205°
2026-04-26 01:52 79.21143 -104.71438 40711 ft 501 kts 205°
2026-04-26 01:53 79.14682 -104.85335 40712 ft 501 kts 205°
2026-04-26 01:53 79.08220 -104.99057 40714 ft 501 kts 205°
2026-04-26 01:54 79.01743 -105.12636 40719 ft 501 kts 204°
2026-04-26 01:54 78.95267 -105.26045 40723 ft 501 kts 204°
2026-04-26 01:55 78.88823 -105.39222 40727 ft 501 kts 204°
2026-04-26 01:55 78.82335 -105.52326 40725 ft 501 kts 204°
2026-04-26 01:56 78.75836 -105.65291 40714 ft 501 kts 204°
2026-04-26 01:56 78.69343 -105.78087 40733 ft 500 kts 204°
2026-04-26 01:57 78.62847 -105.90734 40723 ft 500 kts 204°
2026-04-26 01:57 78.56392 -106.03150 40733 ft 500 kts 204°
2026-04-26 01:58 78.49890 -106.15509 40735 ft 500 kts 203°
2026-04-26 01:58 78.43381 -106.27733 40735 ft 500 kts 203°
2026-04-26 01:59 78.36866 -106.39822 40737 ft 500 kts 203°
2026-04-26 01:59 78.30388 -106.51705 40734 ft 500 kts 203°
2026-04-26 02:00 78.23862 -106.63533 40733 ft 500 kts 203°
2026-04-26 02:00 78.17330 -106.75237 40748 ft 500 kts 203°
2026-04-26 02:01 78.10794 -106.86812 40728 ft 500 kts 203°
2026-04-26 02:01 78.04297 -106.98187 40739 ft 500 kts 202°
2026-04-26 02:02 77.97751 -107.09516 40738 ft 500 kts 202°
2026-04-26 02:02 77.91201 -107.20724 40727 ft 500 kts 202°
2026-04-26 02:03 77.84645 -107.31817 40741 ft 500 kts 202°
2026-04-26 02:03 77.78086 -107.42788 40740 ft 500 kts 202°
2026-04-26 02:04 77.71564 -107.53577 40726 ft 500 kts 202°
2026-04-26 02:04 77.64994 -107.64325 40746 ft 500 kts 202°
2026-04-26 02:05 77.58423 -107.74953 40738 ft 500 kts 202°
2026-04-26 02:05 77.51851 -107.85469 40745 ft 499 kts 202°
2026-04-26 02:06 77.45325 -107.95797 40744 ft 499 kts 202°
2026-04-26 02:06 77.38747 -108.06096 40737 ft 499 kts 201°
2026-04-26 02:07 77.32167 -108.16285 40736 ft 499 kts 201°
2026-04-26 02:07 77.25582 -108.26373 40743 ft 499 kts 201°
2026-04-26 02:08 77.19038 -108.36291 40744 ft 499 kts 201°
2026-04-26 02:08 77.12444 -108.46180 40738 ft 499 kts 201°
2026-04-26 02:09 77.05851 -108.55963 40735 ft 500 kts 201°
2026-04-26 02:09 76.99253 -108.65648 40747 ft 499 kts 201°
2026-04-26 02:10 76.92702 -108.75166 40747 ft 498 kts 201°
2026-04-26 02:10 76.86109 -108.84646 40736 ft 498 kts 201°
2026-04-26 02:11 76.79513 -108.94033 40742 ft 499 kts 201°
2026-04-26 02:11 76.72911 -109.03332 40741 ft 499 kts 201°
2026-04-26 02:12 76.66304 -109.12541 40729 ft 499 kts 201°
2026-04-26 02:12 76.59741 -109.21599 40741 ft 499 kts 201°
2026-04-26 02:13 76.53131 -109.30628 40739 ft 499 kts 201°
2026-04-26 02:13 76.46512 -109.39577 40744 ft 499 kts 201°
2026-04-26 02:14 76.39893 -109.48436 40740 ft 498 kts 201°
2026-04-26 02:14 76.33327 -109.57138 40739 ft 498 kts 200°
2026-04-26 02:15 76.26707 -109.65824 40746 ft 498 kts 200°
2026-04-26 02:15 76.20090 -109.74422 40739 ft 498 kts 200°
2026-04-26 02:16 76.13469 -109.82941 40753 ft 498 kts 200°
2026-04-26 02:16 76.06883 -109.91331 40752 ft 498 kts 200°
2026-04-26 02:17 76.00256 -109.99694 40749 ft 498 kts 200°
2026-04-26 02:17 75.93603 -110.07790 40752 ft 499 kts 199°
2026-04-26 02:18 75.86923 -110.15559 40737 ft 499 kts 199°
2026-04-26 02:18 75.80249 -110.23259 40754 ft 498 kts 199°
2026-04-26 02:19 75.73629 -110.30877 40751 ft 498 kts 199°
2026-04-26 02:19 75.66967 -110.38494 40758 ft 498 kts 199°
2026-04-26 02:20 75.60299 -110.46049 40759 ft 498 kts 199°
2026-04-26 02:20 75.53625 -110.53539 40752 ft 498 kts 199°
2026-04-26 02:21 75.46992 -110.60912 40752 ft 498 kts 199°
2026-04-26 02:21 75.40310 -110.68269 40756 ft 498 kts 199°
2026-04-26 02:22 75.33626 -110.75560 40761 ft 498 kts 199°
2026-04-26 02:22 75.26940 -110.82786 40747 ft 498 kts 199°
2026-04-26 02:23 75.20260 -110.89939 40739 ft 497 kts 199°
2026-04-26 02:23 75.13621 -110.96984 40760 ft 497 kts 199°
2026-04-26 02:24 75.06942 -111.04007 40764 ft 497 kts 198°
2026-04-26 02:24 75.00255 -111.10976 40757 ft 498 kts 198°
2026-04-26 02:25 74.93567 -111.17883 40760 ft 498 kts 198°
2026-04-26 02:25 74.86924 -111.24682 40760 ft 498 kts 198°
2026-04-26 02:26 74.80230 -111.31472 40755 ft 498 kts 198°
2026-04-26 02:26 74.73535 -111.38204 40750 ft 498 kts 198°
2026-04-26 02:27 74.66835 -111.44881 40754 ft 498 kts 198°
2026-04-26 02:27 74.60184 -111.51450 40753 ft 497 kts 198°
2026-04-26 02:28 74.53489 -111.58006 40737 ft 497 kts 198°
2026-04-26 02:28 74.46795 -111.64505 40736 ft 497 kts 198°
2026-04-26 02:29 74.40100 -111.70948 40731 ft 497 kts 198°
2026-04-26 02:29 74.33448 -111.77294 40722 ft 497 kts 198°
2026-04-26 02:30 74.26736 -111.83644 40717 ft 498 kts 198°
2026-04-26 02:30 74.20026 -111.89936 40718 ft 498 kts 198°
2026-04-26 02:31 74.13317 -111.96175 40720 ft 498 kts 198°
2026-04-26 02:31 74.06602 -112.02365 40692 ft 497 kts 198°
2026-04-26 02:32 73.99941 -112.08454 40697 ft 497 kts 198°
2026-04-26 02:32 73.93233 -112.14536 40676 ft 497 kts 198°
2026-04-26 02:33 73.86524 -112.20568 40686 ft 497 kts 198°
2026-04-26 02:33 73.80943 -112.25547 40675 ft 497 kts 198°
2026-04-26 02:34 73.73133 -112.32458 40674 ft 497 kts 197°
2026-04-26 02:34 73.67504 -112.37397 40675 ft 497 kts 197°
2026-04-26 02:35 73.59692 -112.44196 40656 ft 497 kts 197°
2026-04-26 02:35 73.54104 -112.49019 40656 ft 497 kts 197°
2026-04-26 02:36 73.47381 -112.54779 40656 ft 497 kts 197°
2026-04-26 02:36 73.39574 -112.61408 40653 ft 496 kts 197°
2026-04-26 02:37 73.32859 -112.67062 40641 ft 497 kts 197°
2026-04-26 02:37 73.27276 -112.71727 40642 ft 497 kts 197°
2026-04-26 02:38 73.20556 -112.77302 40645 ft 497 kts 197°
2026-04-26 02:38 73.13833 -112.82835 40632 ft 497 kts 197°
2026-04-26 02:39 73.07107 -112.88325 40624 ft 497 kts 197°
2026-04-26 02:39 73.00420 -112.93743 40631 ft 497 kts 197°
2026-04-26 02:40 72.93684 -112.99156 40634 ft 497 kts 197°
2026-04-26 02:40 72.86950 -113.04524 40617 ft 497 kts 197°
2026-04-26 02:41 72.80223 -113.09846 40621 ft 496 kts 197°
2026-04-26 02:41 72.73545 -113.15089 40611 ft 496 kts 197°
2026-04-26 02:42 72.66816 -113.20332 40594 ft 496 kts 197°
2026-04-26 02:42 72.60087 -113.25534 40606 ft 497 kts 197°
2026-04-26 02:43 72.49978 -113.33272 40605 ft 497 kts 197°
2026-04-26 02:43 72.43285 -113.38347 40596 ft 497 kts 197°
2026-04-26 02:44 72.36544 -113.43419 40595 ft 497 kts 197°
2026-04-26 02:44 72.29797 -113.48458 40594 ft 497 kts 196°
2026-04-26 02:45 72.23054 -113.53456 40594 ft 497 kts 196°
2026-04-26 02:45 72.16346 -113.58392 40590 ft 498 kts 196°
2026-04-26 02:46 72.09592 -113.63323 40592 ft 498 kts 196°
2026-04-26 02:46 72.02833 -113.68221 40592 ft 498 kts 196°
2026-04-26 02:47 71.96075 -113.73082 40592 ft 498 kts 196°
2026-04-26 02:47 71.89358 -113.77878 40597 ft 498 kts 196°
2026-04-26 02:48 71.82596 -113.82670 40581 ft 498 kts 197°
2026-04-26 02:48 71.75822 -113.87442 40582 ft 498 kts 196°
2026-04-26 02:49 71.69058 -113.92165 40591 ft 497 kts 196°
2026-04-26 02:49 71.62293 -113.96853 40591 ft 497 kts 196°
2026-04-26 02:50 71.55575 -114.01477 40604 ft 497 kts 196°
2026-04-26 02:50 71.48815 -114.06098 40589 ft 497 kts 195°
2026-04-26 02:51 71.42047 -114.10689 40579 ft 497 kts 195°
2026-04-26 02:51 71.35275 -114.15251 40594 ft 498 kts 195°
2026-04-26 02:52 71.28547 -114.19750 40581 ft 498 kts 195°
2026-04-26 02:52 71.21766 -114.24254 40589 ft 498 kts 195°
2026-04-26 02:53 71.14988 -114.28723 40585 ft 498 kts 195°
2026-04-26 02:53 71.08212 -114.33159 40591 ft 498 kts 195°
2026-04-26 02:54 71.01482 -114.37535 40556 ft 498 kts 195°
2026-04-26 02:54 70.94703 -114.41911 40579 ft 498 kts 195°
2026-04-26 02:55 70.87920 -114.46260 40577 ft 498 kts 195°
2026-04-26 02:55 70.81132 -114.50582 40572 ft 498 kts 195°
2026-04-26 02:56 70.74393 -114.54842 40559 ft 498 kts 195°
2026-04-26 02:56 70.67604 -114.59104 40562 ft 498 kts 195°
2026-04-26 02:57 70.60817 -114.63336 40526 ft 498 kts 195°
2026-04-26 02:57 70.54025 -114.67544 40538 ft 498 kts 194°
2026-04-26 02:58 70.47277 -114.71694 40538 ft 498 kts 194°
2026-04-26 02:58 70.40480 -114.75846 40533 ft 498 kts 194°
2026-04-26 02:59 70.33686 -114.79968 40513 ft 498 kts 194°
2026-04-26 02:59 70.26886 -114.84066 40514 ft 499 kts 194°
2026-04-26 03:00 70.20133 -114.88109 40518 ft 498 kts 194°
2026-04-26 03:00 70.13334 -114.92153 40500 ft 499 kts 194°
2026-04-26 03:01 70.06530 -114.96172 40505 ft 499 kts 194°
2026-04-26 03:01 69.99729 -115.00162 40504 ft 498 kts 194°
2026-04-26 03:02 69.92954 -115.03739 40507 ft 499 kts 192°
2026-04-26 03:02 69.86100 -115.06970 40501 ft 499 kts 192°
2026-04-26 03:03 69.79257 -115.10211 40500 ft 498 kts 192°
2026-04-26 03:03 69.72416 -115.13502 40508 ft 498 kts 192°
2026-04-26 03:04 69.65627 -115.16770 40499 ft 498 kts 192°
2026-04-26 03:04 69.58790 -115.20045 40499 ft 498 kts 192°
2026-04-26 03:05 69.51954 -115.23296 40500 ft 498 kts 192°
2026-04-26 03:05 69.45116 -115.26525 40509 ft 498 kts 192°
2026-04-26 03:06 69.38332 -115.29703 40491 ft 497 kts 192°
2026-04-26 03:06 69.31521 -115.32880 40490 ft 496 kts 192°
2026-04-26 03:07 69.24708 -115.36039 40496 ft 496 kts 192°
2026-04-26 03:07 69.17895 -115.39177 40483 ft 496 kts 192°
2026-04-26 03:08 69.11129 -115.42272 40486 ft 496 kts 192°
2026-04-26 03:08 69.04316 -115.45369 40483 ft 496 kts 192°
2026-04-26 03:09 68.97499 -115.48449 40471 ft 496 kts 192°
2026-04-26 03:09 68.90682 -115.51509 40469 ft 496 kts 192°
2026-04-26 03:10 68.83906 -115.54529 40467 ft 496 kts 192°
2026-04-26 03:10 68.77109 -115.57539 40473 ft 494 kts 192°
2026-04-26 03:11 68.70329 -115.60530 40459 ft 494 kts 192°
2026-04-26 03:11 68.63593 -115.63482 40460 ft 493 kts 192°
2026-04-26 03:12 68.56810 -115.66435 40459 ft 494 kts 192°
2026-04-26 03:12 68.50020 -115.69373 40463 ft 494 kts 192°
2026-04-26 03:13 68.43229 -115.72292 40463 ft 494 kts 192°
2026-04-26 03:13 68.36480 -115.75176 40463 ft 494 kts 192°
2026-04-26 03:14 68.29686 -115.78062 40467 ft 494 kts 192°
2026-04-26 03:14 68.22897 -115.80932 40456 ft 493 kts 191°
2026-04-26 03:15 68.16131 -115.83771 40468 ft 492 kts 191°
2026-04-26 03:15 68.09363 -115.86593 40472 ft 492 kts 191°
2026-04-26 03:16 68.02639 -115.89382 40463 ft 492 kts 191°
2026-04-26 03:16 67.95873 -115.92172 40455 ft 492 kts 191°
2026-04-26 03:17 67.89104 -115.94947 40468 ft 492 kts 191°
2026-04-26 03:17 67.82337 -115.97704 40463 ft 492 kts 191°
2026-04-26 03:18 67.75611 -116.00430 40455 ft 493 kts 191°
2026-04-26 03:18 67.68828 -116.03162 40456 ft 493 kts 191°
2026-04-26 03:19 67.62057 -116.05873 40463 ft 491 kts 191°
2026-04-26 03:19 67.55303 -116.08561 40470 ft 491 kts 191°
2026-04-26 03:20 67.48596 -116.11216 40476 ft 491 kts 191°
2026-04-26 03:20 67.41842 -116.13875 40463 ft 491 kts 191°
2026-04-26 03:21 67.35083 -116.16520 40478 ft 492 kts 191°
2026-04-26 03:21 67.28313 -116.19154 40475 ft 492 kts 191°
2026-04-26 03:22 67.21539 -116.21775 40487 ft 492 kts 191°
2026-04-26 03:22 67.14810 -116.24363 40487 ft 492 kts 191°
2026-04-26 03:23 67.08042 -116.26952 40500 ft 492 kts 191°
2026-04-26 03:23 67.01281 -116.29519 40496 ft 491 kts 190°
2026-04-26 03:24 66.94516 -116.32080 40511 ft 492 kts 190°
2026-04-26 03:24 66.87789 -116.34613 40506 ft 492 kts 190°
2026-04-26 03:25 66.81013 -116.37147 40505 ft 492 kts 190°
2026-04-26 03:25 66.74245 -116.39664 40508 ft 492 kts 190°
2026-04-26 03:26 66.67474 -116.42169 40508 ft 492 kts 190°
2026-04-26 03:26 66.60746 -116.44644 40499 ft 493 kts 190°
2026-04-26 03:27 66.53956 -116.47129 40500 ft 493 kts 190°
2026-04-26 03:27 66.47158 -116.49602 40506 ft 493 kts 190°
2026-04-26 03:28 66.40365 -116.52060 40492 ft 493 kts 190°
2026-04-26 03:28 66.33612 -116.54489 40500 ft 493 kts 190°
2026-04-26 03:29 66.26814 -116.56922 40501 ft 493 kts 190°
2026-04-26 03:29 66.20008 -116.59346 40500 ft 495 kts 190°
2026-04-26 03:30 66.13176 -116.61764 40511 ft 496 kts 190°
2026-04-26 03:30 66.06388 -116.64154 40510 ft 496 kts 190°
2026-04-26 03:31 65.99555 -116.66546 40512 ft 496 kts 189°
2026-04-26 03:31 65.92729 -116.68923 40501 ft 495 kts 189°
2026-04-26 03:32 65.85917 -116.71283 40505 ft 494 kts 189°
2026-04-26 03:32 65.79085 -116.73638 40511 ft 497 kts 189°
2026-04-26 03:33 65.72279 -116.75970 40500 ft 497 kts 189°
2026-04-26 03:33 65.65429 -116.78305 40500 ft 497 kts 189°
2026-04-26 03:34 65.58569 -116.80631 40500 ft 497 kts 189°
2026-04-26 03:34 65.51719 -116.82941 40500 ft 497 kts 189°
2026-04-26 03:35 65.44908 -116.85227 40500 ft 497 kts 189°
2026-04-26 03:35 65.38057 -116.87513 40506 ft 496 kts 189°
2026-04-26 03:36 65.31222 -116.89783 40508 ft 496 kts 189°
2026-04-26 03:36 65.24389 -116.92040 40503 ft 496 kts 189°
2026-04-26 03:37 65.17604 -116.94269 40505 ft 496 kts 189°
2026-04-26 03:37 65.10769 -116.96504 40509 ft 496 kts 189°
2026-04-26 03:38 65.03918 -116.98732 40512 ft 498 kts 189°
2026-04-26 03:38 64.97043 -117.00903 40759 ft 498 kts 187°
2026-04-26 03:39 64.93600 -117.01769 40907 ft 497 kts 186°
2026-04-26 03:39 64.90199 -117.02522 41038 ft 497 kts 186°
2026-04-26 03:39 64.86755 -117.03258 41154 ft 497 kts 186°
2026-04-26 03:39 64.83314 -117.04000 41251 ft 497 kts 186°
2026-04-26 03:40 64.79873 -117.04760 41391 ft 496 kts 186°
2026-04-26 03:40 64.76437 -117.05538 41484 ft 496 kts 186°
2026-04-26 03:40 64.69546 -117.07131 41493 ft 499 kts 186°
2026-04-26 03:41 64.62633 -117.08733 41495 ft 499 kts 186°
2026-04-26 03:41 64.55763 -117.10316 41481 ft 499 kts 186°
2026-04-26 03:42 64.48850 -117.11898 41484 ft 499 kts 186°
2026-04-26 03:42 64.41936 -117.13472 41484 ft 499 kts 186°
2026-04-26 03:43 64.35020 -117.15040 41479 ft 500 kts 186°
2026-04-26 03:43 64.28130 -117.16593 41479 ft 501 kts 186°
2026-04-26 03:44 64.21191 -117.18148 41486 ft 501 kts 186°
2026-04-26 03:44 64.14258 -117.19695 41479 ft 500 kts 186°
2026-04-26 03:45 64.07330 -117.21233 41484 ft 500 kts 186°
2026-04-26 03:45 64.00403 -117.22764 41483 ft 500 kts 186°
2026-04-26 03:46 63.93504 -117.24281 41487 ft 502 kts 186°
2026-04-26 03:47 63.83070 -117.26559 41481 ft 502 kts 185°
2026-04-26 03:47 63.76110 -117.28070 41487 ft 502 kts 185°
2026-04-26 03:48 63.69152 -117.29573 41474 ft 502 kts 186°
2026-04-26 03:48 63.62240 -117.31060 41487 ft 503 kts 185°
2026-04-26 03:49 63.55268 -117.32551 41487 ft 504 kts 185°
2026-04-26 03:49 63.48287 -117.34036 41489 ft 504 kts 185°
2026-04-26 03:50 63.41309 -117.35514 41486 ft 504 kts 185°
2026-04-26 03:50 63.34377 -117.36975 41492 ft 504 kts 185°
2026-04-26 03:51 63.27400 -117.38440 41495 ft 504 kts 185°
2026-04-26 03:51 63.20427 -117.39895 41489 ft 503 kts 185°
2026-04-26 03:52 63.13462 -117.41342 41488 ft 503 kts 185°
2026-04-26 03:52 63.06540 -117.42774 41495 ft 504 kts 185°
2026-04-26 03:53 62.99545 -117.44212 41485 ft 505 kts 185°
2026-04-26 03:53 62.92545 -117.45646 41500 ft 505 kts 185°
2026-04-26 03:54 62.85547 -117.47073 41492 ft 505 kts 185°
2026-04-26 03:54 62.78556 -117.48490 41492 ft 505 kts 185°
2026-04-26 03:55 62.71613 -117.49891 41488 ft 505 kts 185°
2026-04-26 03:55 62.64620 -117.51296 41489 ft 505 kts 185°
2026-04-26 03:56 62.57629 -117.52694 41502 ft 505 kts 185°
2026-04-26 03:56 62.50635 -117.54085 41479 ft 506 kts 184°
2026-04-26 03:57 62.43667 -117.55465 41481 ft 506 kts 184°
2026-04-26 03:57 62.36655 -117.56848 41481 ft 506 kts 184°
2026-04-26 03:58 62.29641 -117.58224 41473 ft 506 kts 184°
2026-04-26 03:58 62.22629 -117.59594 41480 ft 506 kts 184°
2026-04-26 03:59 62.15665 -117.60948 41474 ft 506 kts 184°
2026-04-26 03:59 62.08645 -117.62306 41464 ft 507 kts 184°
2026-04-26 04:00 62.01624 -117.63658 41468 ft 507 kts 184°
2026-04-26 04:00 61.94597 -117.65005 41468 ft 507 kts 184°
2026-04-26 04:01 61.87565 -117.66347 41459 ft 507 kts 184°
2026-04-26 04:01 61.80581 -117.67674 41460 ft 507 kts 184°
2026-04-26 04:02 61.73548 -117.69004 41460 ft 507 kts 184°
2026-04-26 04:02 61.66517 -117.70327 41454 ft 507 kts 184°
2026-04-26 04:03 61.59486 -117.71644 41452 ft 507 kts 184°
2026-04-26 04:03 61.52505 -117.72946 41468 ft 507 kts 184°
2026-04-26 04:04 61.45471 -117.74253 41456 ft 508 kts 184°
2026-04-26 04:04 61.38427 -117.75555 41454 ft 508 kts 184°
2026-04-26 04:05 61.31380 -117.76851 41454 ft 508 kts 184°
2026-04-26 04:05 61.24381 -117.78133 41454 ft 508 kts 184°
2026-04-26 04:06 61.17331 -117.79419 41456 ft 508 kts 184°
2026-04-26 04:06 61.10277 -117.80699 41449 ft 509 kts 184°
2026-04-26 04:07 61.03222 -117.81974 41450 ft 509 kts 184°
2026-04-26 04:07 60.96163 -117.83244 41437 ft 509 kts 184°
2026-04-26 04:08 60.89108 -117.84508 41441 ft 509 kts 184°
2026-04-26 04:08 60.82092 -117.85759 41445 ft 509 kts 184°
2026-04-26 04:09 60.75032 -117.87012 41430 ft 510 kts 184°
2026-04-26 04:09 60.67964 -117.88262 41427 ft 510 kts 184°
2026-04-26 04:10 60.60894 -117.89506 41423 ft 510 kts 184°
2026-04-26 04:10 60.53874 -117.90736 41422 ft 510 kts 184°
2026-04-26 04:11 60.46803 -117.91970 41424 ft 510 kts 184°
2026-04-26 04:11 60.39722 -117.93199 41416 ft 511 kts 184°
2026-04-26 04:12 60.32642 -117.94424 41404 ft 511 kts 184°
2026-04-26 04:12 60.25598 -117.95636 41404 ft 512 kts 184°
2026-04-26 04:13 60.18503 -117.96852 41403 ft 512 kts 184°
2026-04-26 04:13 60.11409 -117.98064 41388 ft 512 kts 184°
2026-04-26 04:14 60.04307 -117.99271 41387 ft 512 kts 184°
2026-04-26 04:14 59.97251 -118.00505 41390 ft 513 kts 185°
2026-04-26 04:15 59.90167 -118.02209 41378 ft 513 kts 186°
2026-04-26 04:15 59.83089 -118.04046 41379 ft 513 kts 186°
2026-04-26 04:16 59.76008 -118.05816 41381 ft 513 kts 186°
2026-04-26 04:16 59.68970 -118.07516 41362 ft 513 kts 186°
2026-04-26 04:17 59.61880 -118.09207 41371 ft 513 kts 186°
2026-04-26 04:17 59.54793 -118.10891 41374 ft 513 kts 186°
2026-04-26 04:18 59.47699 -118.12573 41360 ft 513 kts 186°
2026-04-26 04:18 59.40665 -118.14235 41362 ft 513 kts 186°
2026-04-26 04:19 59.33586 -118.15899 41358 ft 512 kts 186°
2026-04-26 04:19 59.26502 -118.17558 41355 ft 513 kts 186°
2026-04-26 04:20 59.19405 -118.19212 41357 ft 514 kts 186°
2026-04-26 04:20 59.12355 -118.20850 41365 ft 514 kts 186°
2026-04-26 04:21 59.05256 -118.22492 41336 ft 514 kts 186°
2026-04-26 04:21 58.98162 -118.24125 41332 ft 514 kts 186°
2026-04-26 04:22 58.91067 -118.25753 41328 ft 514 kts 186°
2026-04-26 04:22 58.83968 -118.27374 41329 ft 514 kts 186°
2026-04-26 04:23 58.76914 -118.28978 41325 ft 514 kts 186°
2026-04-26 04:23 58.69793 -118.30591 41313 ft 516 kts 186°
2026-04-26 04:24 58.62659 -118.32201 41321 ft 516 kts 186°
2026-04-26 04:24 58.55528 -118.33803 41314 ft 516 kts 186°
2026-04-26 04:25 58.48443 -118.35388 41306 ft 516 kts 186°
2026-04-26 04:25 58.41304 -118.36979 41304 ft 516 kts 186°
2026-04-26 04:26 58.34172 -118.38562 41306 ft 516 kts 186°
2026-04-26 04:26 58.27029 -118.40141 41301 ft 517 kts 186°
2026-04-26 04:27 58.19924 -118.41705 41301 ft 518 kts 186°
2026-04-26 04:27 58.12770 -118.43274 41305 ft 518 kts 185°
2026-04-26 04:28 58.05618 -118.44837 41288 ft 517 kts 185°
2026-04-26 04:28 57.98477 -118.46389 41293 ft 516 kts 185°
2026-04-26 04:29 57.91386 -118.47925 41281 ft 516 kts 185°
2026-04-26 04:29 57.84244 -118.49466 41278 ft 516 kts 185°
2026-04-26 04:30 57.77103 -118.51000 41289 ft 516 kts 185°
2026-04-26 04:30 57.69971 -118.52527 41272 ft 516 kts 185°
2026-04-26 04:31 57.62843 -118.54046 41274 ft 516 kts 185°
2026-04-26 04:31 57.55764 -118.55550 41277 ft 515 kts 185°
2026-04-26 04:32 57.48637 -118.57058 41263 ft 515 kts 185°
2026-04-26 04:32 57.41510 -118.58559 41264 ft 516 kts 185°
2026-04-26 04:33 57.34372 -118.60058 41234 ft 516 kts 185°
2026-04-26 04:33 57.27239 -118.61549 41253 ft 516 kts 185°
2026-04-26 04:34 57.20141 -118.63027 41250 ft 516 kts 185°
2026-04-26 04:34 57.13006 -118.64507 41250 ft 516 kts 185°
2026-04-26 04:35 57.05864 -118.65983 41245 ft 516 kts 185°
2026-04-26 04:35 56.98772 -118.67443 41246 ft 516 kts 185°
2026-04-26 04:36 56.91630 -118.68908 41236 ft 516 kts 185°
2026-04-26 04:36 56.84489 -118.70367 41231 ft 517 kts 185°
2026-04-26 04:37 56.77338 -118.71822 41230 ft 517 kts 185°
2026-04-26 04:37 56.70188 -118.73271 41229 ft 517 kts 185°
2026-04-26 04:38 56.63084 -118.74705 41235 ft 517 kts 185°
2026-04-26 04:38 56.55932 -118.76144 41227 ft 517 kts 185°
2026-04-26 04:39 56.48778 -118.77577 41234 ft 517 kts 185°
2026-04-26 04:39 56.41623 -118.79006 41230 ft 517 kts 185°
2026-04-26 04:40 56.34516 -118.80419 41220 ft 517 kts 185°
2026-04-26 04:40 56.27358 -118.81837 41225 ft 517 kts 185°
2026-04-26 04:41 56.20201 -118.83250 41222 ft 517 kts 185°
2026-04-26 04:41 56.13046 -118.84657 41223 ft 517 kts 185°
2026-04-26 04:42 56.05933 -118.86051 41223 ft 518 kts 185°
2026-04-26 04:42 55.98772 -118.87449 41221 ft 518 kts 185°
2026-04-26 04:43 55.91610 -118.88841 41225 ft 518 kts 185°
2026-04-26 04:43 55.84442 -118.90231 41232 ft 518 kts 185°
2026-04-26 04:44 55.77327 -118.91604 41224 ft 518 kts 185°
2026-04-26 04:44 55.70164 -118.92982 41223 ft 518 kts 185°
2026-04-26 04:45 55.62994 -118.94356 41224 ft 518 kts 185°
2026-04-26 04:45 55.55829 -118.95724 41227 ft 518 kts 185°
2026-04-26 04:46 55.48661 -118.97088 41204 ft 518 kts 185°
2026-04-26 04:46 55.41534 -118.98438 41175 ft 519 kts 185°
2026-04-26 04:47 55.34345 -118.99796 41149 ft 520 kts 185°
2026-04-26 04:47 55.27153 -119.01149 41129 ft 520 kts 185°
2026-04-26 04:48 55.16372 -119.03174 41118 ft 520 kts 185°
2026-04-26 04:48 55.09284 -119.05225 41131 ft 520 kts 191°
2026-04-26 04:49 55.02194 -119.07750 41190 ft 520 kts 191°
2026-04-26 04:49 54.95087 -119.10192 41202 ft 521 kts 190°
2026-04-26 04:50 54.87965 -119.12519 41199 ft 520 kts 190°
2026-04-26 04:50 54.80897 -119.14779 41197 ft 520 kts 190°
2026-04-26 04:51 54.73777 -119.17045 41194 ft 520 kts 190°
2026-04-26 04:51 54.66655 -119.19308 41196 ft 520 kts 190°
2026-04-26 04:52 54.59533 -119.21567 41198 ft 520 kts 190°
2026-04-26 04:52 54.52432 -119.23811 41190 ft 518 kts 190°
2026-04-26 04:53 54.45395 -119.26028 41193 ft 518 kts 190°
2026-04-26 04:53 54.38313 -119.28250 41191 ft 517 kts 190°
2026-04-26 04:54 54.31227 -119.30466 41190 ft 517 kts 190°
2026-04-26 04:54 54.24144 -119.32673 41198 ft 517 kts 190°
2026-04-26 04:55 54.17110 -119.34857 41192 ft 518 kts 190°
2026-04-26 04:55 54.10019 -119.37052 41196 ft 518 kts 190°
2026-04-26 04:56 54.02929 -119.39238 41190 ft 518 kts 190°
2026-04-26 04:56 53.95840 -119.41416 41191 ft 518 kts 190°
2026-04-26 04:57 53.88793 -119.43575 41182 ft 518 kts 190°
2026-04-26 04:57 53.81690 -119.45743 41180 ft 519 kts 190°
2026-04-26 04:58 53.74586 -119.47904 41174 ft 519 kts 190°
2026-04-26 04:58 53.67459 -119.49932 41177 ft 519 kts 187°
2026-04-26 04:59 53.60292 -119.51472 41159 ft 519 kts 186°
2026-04-26 04:59 53.53173 -119.52943 41151 ft 519 kts 187°
2026-04-26 05:00 53.46011 -119.54494 41140 ft 519 kts 187°
2026-04-26 05:00 53.38848 -119.56077 41133 ft 519 kts 187°
2026-04-26 05:01 53.31690 -119.57667 41127 ft 518 kts 187°
2026-04-26 05:01 53.24586 -119.59240 41100 ft 518 kts 187°
2026-04-26 05:02 53.17438 -119.60812 41097 ft 518 kts 187°
2026-04-26 05:02 53.10293 -119.62377 41075 ft 518 kts 187°
2026-04-26 05:03 53.03147 -119.63939 41070 ft 517 kts 187°
2026-04-26 05:03 52.96016 -119.65492 41036 ft 516 kts 187°
2026-04-26 05:04 52.88940 -119.67032 41048 ft 516 kts 187°
2026-04-26 05:04 52.81819 -119.68565 41041 ft 516 kts 187°
2026-04-26 05:05 52.74693 -119.70099 41025 ft 517 kts 187°
2026-04-26 05:05 52.67557 -119.71633 41011 ft 518 kts 187°
2026-04-26 05:06 52.60404 -119.73168 40993 ft 518 kts 187°
2026-04-26 05:06 52.53297 -119.74686 40996 ft 518 kts 187°
2026-04-26 05:07 52.46148 -119.76207 40973 ft 518 kts 187°
2026-04-26 05:07 52.39003 -119.77723 40963 ft 517 kts 187°
2026-04-26 05:08 52.31859 -119.79237 40969 ft 517 kts 187°
2026-04-26 05:08 52.24769 -119.80729 40967 ft 517 kts 187°
2026-04-26 05:09 52.17627 -119.82229 40962 ft 517 kts 187°
2026-04-26 05:09 52.10488 -119.83722 40959 ft 517 kts 187°
2026-04-26 05:10 52.03353 -119.85210 40966 ft 517 kts 187°
2026-04-26 05:10 51.96223 -119.86693 40961 ft 517 kts 187°
2026-04-26 05:11 51.89139 -119.88162 40965 ft 517 kts 187°
2026-04-26 05:11 51.82021 -119.89633 40961 ft 515 kts 187°
2026-04-26 05:12 51.74922 -119.91095 40949 ft 514 kts 187°
2026-04-26 05:12 51.67828 -119.92552 40956 ft 514 kts 187°
2026-04-26 05:13 51.60779 -119.93996 40961 ft 514 kts 187°
2026-04-26 05:13 51.53685 -119.95443 40953 ft 514 kts 187°
2026-04-26 05:14 51.46594 -119.96885 40954 ft 514 kts 187°
2026-04-26 05:14 51.39505 -119.98323 40951 ft 514 kts 187°
2026-04-26 05:15 51.32457 -119.99747 40946 ft 514 kts 187°
2026-04-26 05:15 51.25353 -120.01179 40951 ft 515 kts 187°
2026-04-26 05:16 51.18235 -120.02609 40942 ft 516 kts 187°
2026-04-26 05:16 51.11109 -120.04037 40944 ft 516 kts 187°
2026-04-26 05:17 51.03981 -120.05459 40944 ft 516 kts 187°
2026-04-26 05:17 50.96907 -120.06869 40937 ft 516 kts 187°
2026-04-26 05:18 50.89794 -120.08281 40929 ft 516 kts 187°
2026-04-26 05:18 50.82675 -120.09688 40920 ft 516 kts 187°
2026-04-26 05:19 50.76754 -120.10856 40913 ft 516 kts 187°
2026-04-26 05:19 50.68497 -120.12480 40906 ft 513 kts 187°
2026-04-26 05:20 50.61420 -120.13867 40926 ft 512 kts 187°
2026-04-26 05:20 50.55545 -120.15016 40923 ft 512 kts 187°
2026-04-26 05:21 50.48479 -120.16393 40924 ft 511 kts 187°
2026-04-26 05:21 50.41427 -120.17763 40926 ft 510 kts 187°
2026-04-26 05:22 50.33240 -120.19349 40921 ft 510 kts 187°
2026-04-26 05:22 50.27338 -120.20490 40923 ft 510 kts 187°
2026-04-26 05:23 50.20345 -120.21837 40919 ft 510 kts 187°
2026-04-26 05:23 50.13299 -120.23190 40918 ft 510 kts 187°
2026-04-26 05:24 50.06253 -120.24539 40921 ft 510 kts 187°
2026-04-26 05:24 49.99249 -120.25876 40923 ft 511 kts 187°
2026-04-26 05:25 49.92197 -120.27219 40926 ft 511 kts 187°
2026-04-26 05:25 49.85147 -120.28557 40915 ft 510 kts 187°
2026-04-26 05:26 49.78101 -120.29890 40914 ft 510 kts 187°
2026-04-26 05:26 49.71054 -120.31220 40913 ft 511 kts 187°
2026-04-26 05:27 49.64045 -120.32539 40920 ft 511 kts 187°
2026-04-26 05:27 49.56995 -120.33861 40910 ft 510 kts 187°
2026-04-26 05:28 49.49947 -120.35180 40914 ft 510 kts 187°
2026-04-26 05:28 49.42897 -120.36495 40909 ft 510 kts 187°
2026-04-26 05:29 49.35876 -120.37387 40902 ft 510 kts 181°
2026-04-26 05:29 49.28787 -120.37631 40903 ft 510 kts 181°
2026-04-26 05:30 49.21696 -120.37767 40901 ft 510 kts 180°
2026-04-26 05:30 49.14605 -120.37899 40892 ft 510 kts 180°
2026-04-26 05:31 49.07561 -120.38045 40894 ft 509 kts 180°
2026-04-26 05:31 49.00480 -120.38198 40894 ft 508 kts 180°
2026-04-26 05:32 48.93407 -120.38352 40886 ft 508 kts 180°
2026-04-26 05:32 48.86335 -120.38505 40897 ft 508 kts 180°
2026-04-26 05:33 48.79311 -120.38656 40895 ft 508 kts 180°
2026-04-26 05:33 48.72240 -120.38807 40895 ft 508 kts 180°
2026-04-26 05:34 48.65169 -120.38958 40900 ft 508 kts 180°
2026-04-26 05:34 48.58097 -120.39108 40893 ft 508 kts 180°
2026-04-26 05:35 48.51035 -120.39259 40893 ft 507 kts 180°
2026-04-26 05:35 48.44027 -120.39408 40888 ft 507 kts 180°
2026-04-26 05:36 48.36973 -120.39556 40890 ft 507 kts 180°
2026-04-26 05:36 48.29922 -120.39705 40884 ft 506 kts 180°
2026-04-26 05:37 48.22880 -120.39853 40881 ft 506 kts 181°
2026-04-26 05:37 48.15880 -120.40000 40884 ft 506 kts 181°
2026-04-26 05:38 48.08840 -120.40147 40879 ft 506 kts 181°
2026-04-26 05:38 48.01796 -120.40294 40876 ft 506 kts 181°
2026-04-26 05:39 47.94754 -120.40440 40878 ft 506 kts 181°
2026-04-26 05:39 47.87760 -120.40585 40878 ft 506 kts 181°
2026-04-26 05:40 47.80722 -120.40730 40881 ft 505 kts 181°
2026-04-26 05:40 47.73693 -120.40875 40883 ft 505 kts 181°
2026-04-26 05:41 47.66667 -120.41020 40876 ft 505 kts 181°
2026-04-26 05:41 47.59644 -120.41164 40876 ft 505 kts 181°
2026-04-26 05:42 47.52670 -120.41306 40877 ft 505 kts 181°
2026-04-26 05:42 47.45648 -120.41450 40874 ft 505 kts 181°
2026-04-26 05:43 47.38628 -120.41593 40873 ft 505 kts 181°
2026-04-26 05:43 47.31606 -120.41735 40865 ft 505 kts 181°
2026-04-26 05:44 47.24628 -120.41876 40873 ft 505 kts 181°
2026-04-26 05:44 47.17602 -120.42018 40868 ft 505 kts 181°
2026-04-26 05:45 47.10579 -120.42160 40879 ft 504 kts 181°
2026-04-26 05:45 47.03569 -120.42300 40876 ft 504 kts 181°
2026-04-26 05:46 46.96607 -120.42440 40881 ft 504 kts 181°
2026-04-26 05:46 46.89600 -120.42580 40874 ft 503 kts 181°
2026-04-26 05:47 46.82599 -120.42719 40871 ft 503 kts 181°
2026-04-26 05:47 46.75601 -120.42858 40875 ft 503 kts 181°
2026-04-26 05:48 46.68597 -120.42997 40884 ft 503 kts 181°
2026-04-26 05:48 46.61651 -120.43134 40885 ft 502 kts 181°
2026-04-26 05:49 46.51181 -120.43340 40893 ft 502 kts 181°
2026-04-26 05:50 46.44201 -120.43478 40893 ft 501 kts 181°
2026-04-26 05:50 46.37268 -120.43613 40885 ft 501 kts 181°
2026-04-26 05:51 46.30296 -120.43749 40891 ft 501 kts 181°
2026-04-26 05:51 46.23326 -120.43885 40881 ft 501 kts 181°
2026-04-26 05:52 46.16357 -120.44021 40883 ft 501 kts 181°
2026-04-26 05:52 46.09384 -120.44156 40885 ft 502 kts 181°
2026-04-26 05:53 46.02403 -120.44291 40873 ft 502 kts 181°
2026-04-26 05:53 45.95467 -120.44425 40878 ft 502 kts 181°
2026-04-26 05:54 45.88496 -120.44558 40884 ft 501 kts 181°
2026-04-26 05:54 45.81536 -120.44692 40878 ft 500 kts 181°
2026-04-26 05:55 45.74570 -120.44826 40882 ft 501 kts 181°
2026-04-26 05:55 45.67647 -120.44957 40876 ft 501 kts 181°
2026-04-26 05:56 45.60681 -120.45091 40878 ft 501 kts 181°
2026-04-26 05:56 45.53714 -120.45223 40880 ft 501 kts 181°
2026-04-26 05:57 45.46745 -120.45355 40883 ft 501 kts 181°
2026-04-26 05:57 45.39831 -120.45486 40888 ft 501 kts 181°
2026-04-26 05:58 45.32860 -120.45618 40890 ft 501 kts 181°
2026-04-26 05:58 45.25893 -120.45749 40883 ft 501 kts 182°
2026-04-26 05:59 45.18930 -120.45879 40893 ft 500 kts 182°
2026-04-26 05:59 45.11977 -120.46010 40888 ft 500 kts 182°
2026-04-26 06:00 45.05064 -120.46139 40895 ft 500 kts 182°
2026-04-26 06:00 44.98109 -120.46269 40887 ft 499 kts 182°
2026-04-26 06:01 44.91163 -120.46399 40895 ft 499 kts 182°
2026-04-26 06:01 44.84214 -120.46527 40886 ft 499 kts 181°
2026-04-26 06:02 44.77319 -120.46654 40886 ft 498 kts 182°
2026-04-26 06:02 44.70389 -120.46782 40885 ft 498 kts 182°
2026-04-26 06:03 44.63453 -120.46910 40882 ft 498 kts 182°
2026-04-26 06:03 44.56566 -120.47036 40892 ft 498 kts 182°
2026-04-26 06:04 44.49630 -120.47164 40893 ft 499 kts 182°
2026-04-26 06:04 44.42691 -120.47291 40895 ft 499 kts 182°
2026-04-26 06:05 44.35755 -120.47417 40888 ft 498 kts 182°
2026-04-26 06:05 44.28876 -120.47542 40889 ft 498 kts 182°
2026-04-26 06:06 44.21950 -120.47669 40886 ft 498 kts 182°
2026-04-26 06:06 44.15018 -120.47794 40885 ft 498 kts 182°
2026-04-26 06:07 44.08096 -120.47919 40882 ft 497 kts 182°
2026-04-26 06:07 44.01226 -120.48043 40878 ft 497 kts 182°
2026-04-26 06:08 43.94307 -120.48167 40870 ft 497 kts 182°
2026-04-26 06:08 43.87395 -120.48291 40870 ft 496 kts 182°
2026-04-26 06:09 43.80487 -120.48415 40869 ft 496 kts 182°
2026-04-26 06:09 43.73628 -120.48537 40867 ft 496 kts 182°
2026-04-26 06:10 43.66730 -120.48660 40860 ft 496 kts 182°
2026-04-26 06:10 43.59833 -120.48783 40854 ft 496 kts 182°
2026-04-26 06:11 43.52934 -120.48905 40856 ft 496 kts 182°
2026-04-26 06:11 43.46081 -120.49027 40861 ft 496 kts 182°
2026-04-26 06:12 43.39189 -120.49148 40857 ft 496 kts 182°
2026-04-26 06:12 43.32290 -120.49270 40853 ft 495 kts 182°
2026-04-26 06:13 43.25400 -120.49391 40856 ft 495 kts 182°
2026-04-26 06:13 43.18561 -120.49511 40853 ft 495 kts 182°
2026-04-26 06:14 43.11668 -120.49631 40848 ft 495 kts 182°
2026-04-26 06:14 43.04780 -120.49751 40855 ft 494 kts 182°
2026-04-26 06:15 42.97903 -120.49871 40852 ft 494 kts 182°
2026-04-26 06:15 42.91078 -120.49990 40853 ft 494 kts 182°
2026-04-26 06:16 42.84213 -120.50109 40845 ft 493 kts 182°
2026-04-26 06:16 42.77350 -120.50228 40840 ft 493 kts 182°
2026-04-26 06:17 42.70485 -120.50347 40833 ft 493 kts 182°
2026-04-26 06:17 42.63673 -120.50463 40843 ft 492 kts 182°
2026-04-26 06:18 42.56829 -120.50581 40840 ft 492 kts 182°
2026-04-26 06:18 42.49989 -120.50659 40831 ft 493 kts 180°
2026-04-26 06:19 42.43131 -120.50105 40831 ft 494 kts 178°
2026-04-26 06:19 42.36318 -120.49412 40834 ft 494 kts 178°
2026-04-26 06:20 42.29466 -120.48692 40824 ft 494 kts 178°
2026-04-26 06:20 42.22617 -120.47982 40827 ft 493 kts 178°
2026-04-26 06:21 42.15778 -120.47285 40819 ft 493 kts 178°
2026-04-26 06:21 42.08986 -120.46595 40820 ft 493 kts 178°
2026-04-26 06:22 42.02143 -120.45902 40824 ft 493 kts 178°
2026-04-26 06:22 41.95310 -120.45211 40817 ft 493 kts 178°
2026-04-26 06:23 41.88479 -120.44521 40812 ft 492 kts 178°
2026-04-26 06:23 41.81649 -120.43833 40802 ft 492 kts 178°
2026-04-26 06:24 41.74869 -120.43152 40801 ft 492 kts 178°
2026-04-26 06:24 41.68042 -120.42467 40799 ft 492 kts 178°
2026-04-26 06:25 41.61217 -120.41784 40795 ft 492 kts 178°
2026-04-26 06:25 41.54445 -120.41108 40796 ft 492 kts 178°
2026-04-26 06:26 41.47629 -120.40428 40829 ft 490 kts 179°
2026-04-26 06:26 41.40823 -120.39751 40823 ft 490 kts 179°
2026-04-26 06:27 41.34018 -120.39076 40809 ft 491 kts 179°
2026-04-26 06:27 41.27261 -120.38407 40809 ft 490 kts 179°
2026-04-26 06:28 41.20470 -120.37736 40798 ft 489 kts 179°
2026-04-26 06:28 41.13681 -120.37066 40787 ft 489 kts 179°
2026-04-26 06:29 41.06901 -120.36398 40782 ft 488 kts 179°
2026-04-26 06:29 41.00168 -120.35737 40788 ft 489 kts 179°
2026-04-26 06:30 40.93387 -120.35072 40780 ft 488 kts 179°
2026-04-26 06:30 40.86612 -120.34409 40771 ft 488 kts 179°
2026-04-26 06:31 40.79839 -120.33748 40783 ft 488 kts 179°
2026-04-26 06:31 40.73066 -120.33088 40776 ft 488 kts 179°
2026-04-26 06:32 40.66334 -120.32434 40785 ft 488 kts 179°
2026-04-26 06:32 40.59555 -120.31776 40787 ft 488 kts 179°
2026-04-26 06:33 40.52779 -120.31119 40797 ft 488 kts 179°
2026-04-26 06:33 40.46048 -120.30469 40803 ft 488 kts 179°
2026-04-26 06:34 40.39276 -120.29816 40808 ft 488 kts 179°
2026-04-26 06:34 40.32504 -120.29164 40807 ft 488 kts 179°
2026-04-26 06:35 40.25732 -120.28514 40809 ft 488 kts 179°
2026-04-26 06:35 40.18961 -120.27865 40788 ft 488 kts 179°
2026-04-26 06:36 40.12242 -120.27222 40780 ft 488 kts 179°
2026-04-26 06:36 40.05474 -120.26576 40774 ft 487 kts 179°
2026-04-26 06:37 39.98709 -120.25931 40785 ft 487 kts 179°
2026-04-26 06:37 39.91951 -120.25288 40790 ft 487 kts 179°
2026-04-26 06:38 39.85232 -120.24651 40785 ft 487 kts 179°
2026-04-26 06:38 39.78476 -120.24011 40798 ft 487 kts 179°
2026-04-26 06:39 39.71718 -120.23372 40798 ft 487 kts 179°
2026-04-26 06:39 39.64965 -120.22736 40803 ft 487 kts 179°
2026-04-26 06:40 39.58212 -120.22099 40802 ft 486 kts 179°
2026-04-26 06:40 39.51506 -120.21469 40801 ft 486 kts 179°
2026-04-26 06:41 39.44757 -120.20836 40807 ft 486 kts 179°
2026-04-26 06:41 39.38010 -120.20204 40809 ft 486 kts 179°
2026-04-26 06:42 39.31263 -120.19573 40875 ft 486 kts 179°
2026-04-26 06:42 39.24560 -120.18949 40874 ft 486 kts 179°
2026-04-26 06:43 39.17818 -120.18322 40860 ft 486 kts 179°
2026-04-26 06:43 39.11072 -120.17696 40852 ft 486 kts 179°
2026-04-26 06:44 39.04330 -120.17069 40834 ft 486 kts 179°
2026-04-26 06:44 38.97592 -120.16445 40829 ft 485 kts 179°
2026-04-26 06:45 38.90899 -120.15828 40824 ft 485 kts 179°
2026-04-26 06:45 38.84165 -120.15206 40832 ft 485 kts 179°
2026-04-26 06:46 38.77427 -120.14586 40838 ft 485 kts 179°
2026-04-26 06:46 38.70691 -120.13968 40845 ft 485 kts 179°
2026-04-26 06:47 38.64000 -120.13355 40858 ft 485 kts 179°
2026-04-26 06:47 38.57268 -120.12738 40867 ft 485 kts 179°
2026-04-26 06:48 38.50532 -120.12124 40869 ft 485 kts 179°
2026-04-26 06:48 38.43797 -120.11510 40880 ft 485 kts 179°
2026-04-26 06:49 38.37115 -120.10899 40886 ft 484 kts 179°
2026-04-26 06:49 38.30399 -120.10290 40894 ft 484 kts 179°
2026-04-26 06:50 38.23689 -120.09619 40898 ft 485 kts 175°
2026-04-26 06:50 38.17010 -120.08291 40912 ft 486 kts 174°
2026-04-26 06:51 38.10341 -120.06825 40908 ft 486 kts 174°
2026-04-26 06:51 38.00397 -120.04616 40916 ft 485 kts 174°
2026-04-26 06:52 37.93743 -120.03155 40923 ft 485 kts 174°
2026-04-26 06:52 37.87087 -120.01700 40922 ft 485 kts 174°
2026-04-26 06:53 37.80431 -120.00250 40920 ft 485 kts 174°
2026-04-26 06:53 37.73817 -119.98810 40922 ft 485 kts 174°
2026-04-26 06:54 37.67160 -119.97362 40929 ft 485 kts 174°
2026-04-26 06:54 37.60503 -119.95918 40934 ft 485 kts 174°
2026-04-26 06:55 37.53853 -119.94476 40935 ft 485 kts 174°
2026-04-26 06:55 37.47242 -119.93047 40936 ft 485 kts 174°
2026-04-26 06:56 37.40586 -119.91612 40936 ft 485 kts 174°
2026-04-26 06:56 37.33925 -119.90177 40936 ft 485 kts 174°
2026-04-26 06:57 37.27267 -119.88745 40939 ft 486 kts 174°
2026-04-26 06:57 37.20653 -119.87326 40940 ft 486 kts 174°
2026-04-26 06:58 37.13990 -119.85899 40926 ft 486 kts 174°
2026-04-26 06:58 37.07328 -119.84474 40943 ft 486 kts 174°
2026-04-26 06:59 37.00666 -119.83052 40944 ft 486 kts 174°
2026-04-26 06:59 36.94052 -119.81642 40947 ft 485 kts 174°
2026-04-26 07:00 36.87402 -119.80226 40943 ft 485 kts 175°
2026-04-26 07:00 36.80751 -119.78814 40943 ft 485 kts 175°
2026-04-26 07:01 36.74103 -119.77405 40953 ft 485 kts 175°
2026-04-26 07:01 36.67495 -119.76007 40953 ft 485 kts 175°
2026-04-26 07:02 36.60844 -119.74602 40951 ft 485 kts 175°
2026-04-26 07:02 36.54188 -119.73199 40948 ft 485 kts 175°
2026-04-26 07:03 36.47536 -119.71798 40954 ft 485 kts 175°
2026-04-26 07:03 36.40934 -119.70410 40952 ft 484 kts 175°
2026-04-26 07:04 36.34288 -119.69017 40952 ft 485 kts 175°
2026-04-26 07:04 36.27637 -119.67623 40952 ft 484 kts 175°
2026-04-26 07:05 36.20998 -119.66235 40952 ft 484 kts 175°
2026-04-26 07:05 36.14363 -119.64851 40951 ft 484 kts 175°
2026-04-26 07:06 36.07771 -119.63477 40947 ft 483 kts 175°
2026-04-26 07:06 36.01143 -119.62099 40945 ft 483 kts 175°
2026-04-26 07:07 35.94608 -119.59924 40939 ft 490 kts 166°
2026-04-26 07:07 35.88158 -119.57208 40938 ft 490 kts 166°
2026-04-26 07:08 35.81753 -119.54490 40942 ft 490 kts 166°
2026-04-26 07:08 35.75304 -119.51751 40945 ft 490 kts 166°
2026-04-26 07:09 35.68865 -119.49021 40945 ft 489 kts 166°
2026-04-26 07:09 35.62433 -119.46297 40945 ft 489 kts 167°
2026-04-26 07:11 35.46381 -119.39520 40941 ft 489 kts 167°
2026-04-26 07:11 35.39940 -119.36809 40939 ft 489 kts 167°
2026-04-26 07:12 35.33495 -119.34100 40913 ft 489 kts 167°
2026-04-26 07:12 35.27098 -119.31416 40939 ft 490 kts 167°
2026-04-26 07:13 35.20649 -119.28715 40939 ft 490 kts 167°
2026-04-26 07:13 35.14200 -119.26019 40929 ft 490 kts 167°
2026-04-26 07:14 35.07755 -119.23328 40923 ft 489 kts 167°
2026-04-26 07:14 35.01314 -119.20644 40928 ft 489 kts 167°